JAL225 RJTT-EFHK

Flight info

Callsign JAL225
Flight time 12h 11m
Altitude 39000
Route INUBO Y808 PUTER A590 POWAL DCT OPAKE DCT MARCC DCT JUJXI DCT 80N165W DCT DEKMO DCT 89N060W/M084F390 82N010E/N0492F390 DCT TETNI DCT GOSVA Y86 LUSEP
Aircraft B77W/H-SDE1E2E3FGHIJ2J3J4J5M1RWXY/LB1D1

Departure

Time 2026-04-20 21:59
Airport Tokyo Haneda International Airport (RJTT)

Arrival

Time 2026-04-21 10:11
Airport Helsinki Vantaa Airport (EFHK)
Time Latitude Longitude Altitude Speed Heading
2026-04-20 21:35 35.55736 139.78747 32 ft 0 kts 60°
2026-04-20 21:50 35.55741 139.78759 32 ft 0 kts 60°
2026-04-20 21:51 35.55738 139.78753 32 ft 2 kts 60°
2026-04-20 21:52 35.55730 139.78735 32 ft 2 kts 60°
2026-04-20 21:52 35.55722 139.78718 31 ft 2 kts 60°
2026-04-20 21:52 35.55714 139.78700 30 ft 2 kts 60°
2026-04-20 21:52 35.55707 139.78682 29 ft 2 kts 106°
2026-04-20 21:53 35.55714 139.78664 29 ft 2 kts 121°
2026-04-20 21:53 35.55724 139.78648 32 ft 2 kts 139°
2026-04-20 21:53 35.55736 139.78637 29 ft 1 kts 148°
2026-04-20 21:53 35.55739 139.78635 31 ft 0 kts 149°
2026-04-20 21:54 35.55738 139.78636 29 ft 1 kts 149°
2026-04-20 21:54 35.55717 139.78651 32 ft 7 kts 149°
2026-04-20 21:54 35.55665 139.78701 32 ft 10 kts 126°
2026-04-20 21:55 35.55670 139.78782 31 ft 10 kts 54°
2026-04-20 21:55 35.55713 139.78851 32 ft 10 kts 39°
2026-04-20 21:55 35.55782 139.78846 32 ft 10 kts 334°
2026-04-20 21:55 35.55849 139.78797 32 ft 12 kts 329°
2026-04-20 21:56 35.55933 139.78738 32 ft 16 kts 330°
2026-04-20 21:56 35.56044 139.78658 31 ft 22 kts 329°
2026-04-20 21:56 35.56195 139.78551 31 ft 28 kts 330°
2026-04-20 21:56 35.56366 139.78430 31 ft 25 kts 330°
2026-04-20 21:57 35.56466 139.78432 31 ft 16 kts 49°
2026-04-20 21:57 35.56523 139.78545 31 ft 16 kts 58°
2026-04-20 21:57 35.56554 139.78653 31 ft 13 kts 99°
2026-04-20 21:57 35.56489 139.78731 32 ft 13 kts 150°
2026-04-20 21:58 35.56477 139.78739 32 ft 0 kts 150°
2026-04-20 21:58 35.56474 139.78741 32 ft 6 kts 150°
2026-04-20 21:58 35.56205 139.78930 32 ft 85 kts 150°
2026-04-20 21:59 35.55452 139.79461 32 ft 163 kts 149°
2026-04-20 21:59 35.54288 139.80240 290 ft 212 kts 153°
2026-04-20 21:59 35.52828 139.81218 713 ft 248 kts 154°
2026-04-20 21:59 35.51398 139.82158 2457 ft 224 kts 154°
2026-04-20 22:00 35.50321 139.83590 3261 ft 245 kts 120°
2026-04-20 22:00 35.49980 139.85764 3377 ft 275 kts 99°
2026-04-20 22:00 35.49666 139.88125 3505 ft 284 kts 115°
2026-04-20 22:00 35.48962 139.90407 3923 ft 288 kts 122°
2026-04-20 22:01 35.48226 139.92712 4376 ft 300 kts 107°
2026-04-20 22:01 35.48288 139.95351 4706 ft 323 kts 74°
2026-04-20 22:01 35.49428 139.97748 5202 ft 328 kts 46°
2026-04-20 22:01 35.51021 139.99761 5767 ft 331 kts 45°
2026-04-20 22:02 35.52611 140.01827 6364 ft 333 kts 44°
2026-04-20 22:02 35.54416 140.03549 6819 ft 329 kts 19°
2026-04-20 22:02 35.56597 140.04156 7325 ft 317 kts 352°
2026-04-20 22:02 35.58716 140.03676 7926 ft 304 kts 330°
2026-04-20 22:03 35.60535 140.02509 8490 ft 295 kts 316°
2026-04-20 22:03 35.61980 140.00794 9063 ft 287 kts 302°
2026-04-20 22:03 35.63326 139.98969 9550 ft 294 kts 316°
2026-04-20 22:03 35.65235 139.97859 9965 ft 316 kts 343°
2026-04-20 22:04 35.67475 139.97550 10173 ft 333 kts 348°
2026-04-20 22:04 35.69848 139.97290 10321 ft 351 kts 348°
2026-04-20 22:04 35.72347 139.96988 10484 ft 369 kts 348°
2026-04-20 22:04 35.74865 139.96465 10826 ft 370 kts 338°
2026-04-20 22:05 35.77295 139.95415 11351 ft 372 kts 332°
2026-04-20 22:05 35.79694 139.94181 11976 ft 375 kts 332°
2026-04-20 22:05 35.82114 139.92932 12658 ft 377 kts 332°
2026-04-20 22:05 35.84548 139.91725 13366 ft 378 kts 333°
2026-04-20 22:06 35.87021 139.90590 13958 ft 380 kts 339°
2026-04-20 22:06 35.89711 139.90287 14286 ft 402 kts
2026-04-20 22:06 35.92467 139.91191 14764 ft 419 kts 19°
2026-04-20 22:06 35.95021 139.93049 15232 ft 434 kts 35°
2026-04-20 22:07 35.97148 139.95758 15744 ft 446 kts 52°
2026-04-20 22:07 35.98631 139.99160 16244 ft 455 kts 70°
2026-04-20 22:07 35.99310 140.03001 16697 ft 461 kts 86°
2026-04-20 22:07 35.99217 140.06952 17128 ft 463 kts 101°
2026-04-20 22:08 35.98548 140.10847 17543 ft 465 kts 107°
2026-04-20 22:08 35.97678 140.14721 17995 ft 470 kts 109°
2026-04-20 22:08 35.96734 140.18606 18408 ft 474 kts 110°
2026-04-20 22:08 35.95787 140.22513 18889 ft 476 kts 109°
2026-04-20 22:09 35.94872 140.26402 19347 ft 479 kts 109°
2026-04-20 22:09 35.93968 140.30382 19725 ft 485 kts 108°
2026-04-20 22:09 35.93076 140.34422 20087 ft 490 kts 108°
2026-04-20 22:09 35.92192 140.38497 20490 ft 494 kts 108°
2026-04-20 22:10 35.91306 140.42612 20912 ft 498 kts 108°
2026-04-20 22:10 35.90417 140.46753 21352 ft 501 kts 108°
2026-04-20 22:10 35.89521 140.50916 21735 ft 505 kts 108°
2026-04-20 22:10 35.88613 140.55119 22093 ft 510 kts 108°
2026-04-20 22:11 35.87692 140.59368 22447 ft 514 kts 108°
2026-04-20 22:11 35.86761 140.63648 22814 ft 518 kts 108°
2026-04-20 22:11 35.85821 140.67957 23209 ft 521 kts 108°
2026-04-20 22:11 35.84877 140.72282 23584 ft 524 kts 108°
2026-04-20 22:12 35.83926 140.76629 23958 ft 525 kts 108°
2026-04-20 22:12 35.82971 140.80983 24304 ft 528 kts 108°
2026-04-20 22:12 35.82010 140.85360 24609 ft 531 kts 108°
2026-04-20 22:12 35.81040 140.89763 24907 ft 534 kts 107°
2026-04-20 22:13 35.80064 140.94191 25232 ft 537 kts 107°
2026-04-20 22:13 35.79081 140.98637 25558 ft 539 kts 107°
2026-04-20 22:13 35.78090 141.03113 25854 ft 542 kts 108°
2026-04-20 22:13 35.77094 141.07602 26136 ft 545 kts 107°
2026-04-20 22:14 35.76089 141.12124 26454 ft 547 kts 107°
2026-04-20 22:14 35.75081 141.16655 26739 ft 550 kts 107°
2026-04-20 22:14 35.74078 141.21150 26999 ft 553 kts 107°
2026-04-20 22:14 35.73055 141.25726 27275 ft 556 kts 107°
2026-04-20 22:15 35.72011 141.30387 27541 ft 559 kts 107°
2026-04-20 22:15 35.70987 141.34950 27796 ft 561 kts 107°
2026-04-20 22:15 35.69946 141.39580 28053 ft 563 kts 107°
2026-04-20 22:15 35.68900 141.44226 28348 ft 564 kts 107°
2026-04-20 22:16 35.67845 141.48901 28600 ft 567 kts 107°
2026-04-20 22:16 35.66784 141.53588 28807 ft 569 kts 107°
2026-04-20 22:16 35.65720 141.58283 29024 ft 572 kts 107°
2026-04-20 22:16 35.64648 141.63007 29320 ft 572 kts 107°
2026-04-20 22:17 35.63577 141.67715 29644 ft 572 kts 107°
2026-04-20 22:17 35.62501 141.72435 29840 ft 573 kts 107°
2026-04-20 22:17 35.61422 141.77160 30043 ft 575 kts 107°
2026-04-20 22:17 35.60351 141.81838 30187 ft 577 kts 107°
2026-04-20 22:18 35.59259 141.86597 30313 ft 579 kts 107°
2026-04-20 22:18 35.58161 141.91373 30456 ft 581 kts 107°
2026-04-20 22:18 35.57063 141.96145 30595 ft 582 kts 107°
2026-04-20 22:18 35.55957 142.00938 30756 ft 583 kts 107°
2026-04-20 22:19 35.54850 142.05729 30885 ft 584 kts 107°
2026-04-20 22:19 35.53739 142.10525 31083 ft 583 kts 107°
2026-04-20 22:19 35.52628 142.15315 31206 ft 584 kts 107°
2026-04-20 22:20 35.50390 142.24927 31378 ft 587 kts 107°
2026-04-20 22:20 35.49262 142.29761 31483 ft 588 kts 107°
2026-04-20 22:20 35.48143 142.34543 31579 ft 589 kts 107°
2026-04-20 22:20 35.47013 142.39369 31689 ft 589 kts 107°
2026-04-20 22:21 35.45878 142.44204 31820 ft 589 kts 107°
2026-04-20 22:21 35.43928 142.53982 31931 ft 591 kts 99°
2026-04-20 22:22 35.43218 142.64000 31942 ft 590 kts 89°
2026-04-20 22:22 35.43194 142.74035 31948 ft 591 kts 89°
2026-04-20 22:23 35.43113 142.84114 31939 ft 591 kts 89°
2026-04-20 22:23 35.42963 142.94196 31947 ft 590 kts 90°
2026-04-20 22:24 35.42797 143.04253 31954 ft 588 kts 90°
2026-04-20 22:24 35.42662 143.12581 31954 ft 587 kts 90°
2026-04-20 22:25 35.42536 143.22556 31940 ft 581 kts 84°
2026-04-20 22:25 35.43177 143.27397 31971 ft 570 kts 67°
2026-04-20 22:25 35.44780 143.31766 31969 ft 557 kts 52°
2026-04-20 22:25 35.47046 143.35562 31970 ft 547 kts 41°
2026-04-20 22:26 35.49745 143.38786 31956 ft 536 kts 30°
2026-04-20 22:26 35.52832 143.41181 31970 ft 519 kts 20°
2026-04-20 22:26 35.56012 143.43299 31967 ft 521 kts 21°
2026-04-20 22:27 35.65491 143.49955 31969 ft 527 kts 22°
2026-04-20 22:27 35.71831 143.54550 31967 ft 530 kts 22°
2026-04-20 22:28 35.78195 143.59155 31963 ft 531 kts 22°
2026-04-20 22:28 35.84576 143.63780 31953 ft 532 kts 23°
2026-04-20 22:29 35.90927 143.68412 31953 ft 533 kts 23°
2026-04-20 22:29 35.97305 143.73074 31980 ft 532 kts 23°
2026-04-20 22:30 36.03687 143.77743 31966 ft 533 kts 22°
2026-04-20 22:30 36.10071 143.82423 31958 ft 533 kts 23°
2026-04-20 22:31 36.16452 143.87111 31947 ft 533 kts 23°
2026-04-20 22:31 36.22836 143.91808 31948 ft 533 kts 23°
2026-04-20 22:32 36.29217 143.96499 31954 ft 534 kts 22°
2026-04-20 22:32 36.35612 144.01196 31949 ft 534 kts 22°
2026-04-20 22:33 36.42000 144.05901 31948 ft 534 kts 22°
2026-04-20 22:33 36.48357 144.10595 31943 ft 534 kts 22°
2026-04-20 22:34 36.54759 144.15331 31949 ft 535 kts 22°
2026-04-20 22:34 36.61164 144.20078 31948 ft 536 kts 22°
2026-04-20 22:35 36.67579 144.24843 31959 ft 537 kts 23°
2026-04-20 22:35 36.74004 144.29625 31949 ft 538 kts 23°
2026-04-20 22:36 36.80442 144.34425 31944 ft 539 kts 22°
2026-04-20 22:36 36.86848 144.39229 31948 ft 540 kts 23°
2026-04-20 22:37 36.93295 144.44086 31934 ft 541 kts 23°
2026-04-20 22:37 36.99740 144.48952 31935 ft 541 kts 23°
2026-04-20 22:38 37.06186 144.53827 31958 ft 542 kts 23°
2026-04-20 22:38 37.12652 144.58723 31939 ft 542 kts 23°
2026-04-20 22:39 37.19071 144.63594 31932 ft 542 kts 23°
2026-04-20 22:39 37.25523 144.68501 31941 ft 542 kts 23°
2026-04-20 22:40 37.31982 144.73423 31954 ft 542 kts 23°
2026-04-20 22:40 37.38442 144.78355 31943 ft 543 kts 23°
2026-04-20 22:41 37.44897 144.83294 31936 ft 543 kts 23°
2026-04-20 22:41 37.51362 144.88252 31940 ft 543 kts 23°
2026-04-20 22:42 37.57775 144.93179 31937 ft 543 kts 23°
2026-04-20 22:42 37.64235 144.98152 31940 ft 543 kts 23°
2026-04-20 22:43 37.70683 145.03125 31947 ft 543 kts 24°
2026-04-20 22:43 37.77128 145.08108 31939 ft 543 kts 24°
2026-04-20 22:44 37.83576 145.13103 31942 ft 543 kts 24°
2026-04-20 22:44 37.89987 145.18080 31946 ft 544 kts 24°
2026-04-20 22:45 37.96448 145.23105 31939 ft 545 kts 24°
2026-04-20 22:45 38.02909 145.28141 31943 ft 545 kts 24°
2026-04-20 22:46 38.09367 145.33187 31941 ft 545 kts 24°
2026-04-20 22:46 38.15844 145.38257 31943 ft 546 kts 24°
2026-04-20 22:47 38.22321 145.43338 31941 ft 547 kts 24°
2026-04-20 22:47 38.28796 145.48428 32000 ft 548 kts 24°
2026-04-20 22:48 38.32011 145.51036 32245 ft 548 kts 27°
2026-04-20 22:48 38.35072 145.53938 32501 ft 552 kts 33°
2026-04-20 22:48 38.37910 145.57173 32621 ft 556 kts 36°
2026-04-20 22:48 38.40786 145.60596 32340 ft 560 kts 37°
2026-04-20 22:49 38.43592 145.63973 31999 ft 562 kts 37°
2026-04-20 22:49 38.46428 145.67392 31946 ft 559 kts 37°
2026-04-20 22:49 38.52106 145.74186 31947 ft 560 kts 37°
2026-04-20 22:50 38.57827 145.80968 31960 ft 562 kts 37°
2026-04-20 22:50 38.63573 145.87775 31946 ft 563 kts 37°
2026-04-20 22:51 38.69319 145.94603 31982 ft 563 kts 37°
2026-04-20 22:51 38.75061 146.01448 31956 ft 564 kts 37°
2026-04-20 22:52 38.80754 146.08256 31943 ft 561 kts 38°
2026-04-20 22:52 38.86462 146.15100 31954 ft 557 kts 38°
2026-04-20 22:53 38.92079 146.21841 31954 ft 556 kts 38°
2026-04-20 22:53 38.97731 146.28639 31962 ft 556 kts 38°
2026-04-20 22:54 39.03376 146.35445 31967 ft 556 kts 38°
2026-04-20 22:54 39.09025 146.42275 31960 ft 557 kts 38°
2026-04-20 22:55 39.14671 146.49117 31956 ft 557 kts 38°
2026-04-20 22:55 39.20309 146.55965 31960 ft 557 kts 38°
2026-04-20 22:56 39.25917 146.62791 31959 ft 557 kts 39°
2026-04-20 22:56 39.31554 146.69669 31961 ft 557 kts 39°
2026-04-20 22:57 39.37191 146.76562 31971 ft 558 kts 39°
2026-04-20 22:57 39.42830 146.83475 31967 ft 558 kts 39°
2026-04-20 22:58 39.48465 146.90401 31970 ft 558 kts 39°
2026-04-20 22:58 39.54091 146.97329 31974 ft 558 kts 39°
2026-04-20 22:59 39.59713 147.04269 31974 ft 557 kts 39°
2026-04-20 22:59 39.65325 147.11213 31997 ft 557 kts 40°
2026-04-20 23:00 39.70930 147.18165 31986 ft 557 kts 40°
2026-04-20 23:00 39.76487 147.25075 31982 ft 556 kts 40°
2026-04-20 23:01 39.82073 147.32037 31985 ft 555 kts 40°
2026-04-20 23:01 39.87638 147.38989 31994 ft 554 kts 40°
2026-04-20 23:02 39.93192 147.45943 31989 ft 552 kts 40°
2026-04-20 23:02 39.98695 147.52847 32007 ft 551 kts 40°
2026-04-20 23:03 40.04218 147.59797 31985 ft 551 kts 40°
2026-04-20 23:03 40.09733 147.66753 31993 ft 550 kts 40°
2026-04-20 23:04 40.15232 147.73704 31995 ft 550 kts 40°
2026-04-20 23:04 40.20723 147.80662 32002 ft 549 kts 40°
2026-04-20 23:05 40.26210 147.87630 32010 ft 549 kts 41°
2026-04-20 23:05 40.31663 147.94572 32002 ft 550 kts 41°
2026-04-20 23:06 40.37150 148.01573 32006 ft 550 kts 41°
2026-04-20 23:06 40.42635 148.08590 32013 ft 551 kts 41°
2026-04-20 23:07 40.48118 148.15621 32022 ft 551 kts 41°
2026-04-20 23:07 40.53597 148.22663 32015 ft 551 kts 41°
2026-04-20 23:08 40.59079 148.29728 32015 ft 550 kts 41°
2026-04-20 23:08 40.64512 148.36745 32017 ft 549 kts 41°
2026-04-20 23:09 40.69963 148.43803 32013 ft 548 kts 41°
2026-04-20 23:09 40.75402 148.50863 32021 ft 547 kts 41°
2026-04-20 23:10 40.80789 148.57871 32016 ft 546 kts 41°
2026-04-20 23:10 40.86192 148.64918 32023 ft 546 kts 41°
2026-04-20 23:11 40.91595 148.71982 32037 ft 546 kts 42°
2026-04-20 23:11 40.96992 148.79055 32025 ft 546 kts 42°
2026-04-20 23:12 41.01479 148.84951 32018 ft 546 kts 42°
2026-04-20 23:12 41.06873 148.92051 32022 ft 546 kts 42°
2026-04-20 23:13 41.12260 148.99161 32028 ft 546 kts 42°
2026-04-20 23:13 41.17644 149.06293 32025 ft 547 kts 42°
2026-04-20 23:14 41.22994 149.13398 32042 ft 547 kts 42°
2026-04-20 23:14 41.28378 149.20567 32035 ft 547 kts 42°
2026-04-20 23:15 41.33751 149.27740 32045 ft 547 kts 43°
2026-04-20 23:15 41.39120 149.34923 32054 ft 547 kts 43°
2026-04-20 23:16 41.44482 149.42116 32041 ft 547 kts 43°
2026-04-20 23:16 41.49836 149.49315 32049 ft 546 kts 43°
2026-04-20 23:17 41.55174 149.56510 32057 ft 545 kts 43°
2026-04-20 23:17 41.60475 149.63673 32055 ft 545 kts 43°
2026-04-20 23:18 41.65795 149.70881 32057 ft 544 kts 43°
2026-04-20 23:18 41.71104 149.78091 32070 ft 543 kts 43°
2026-04-20 23:19 41.76401 149.85304 32065 ft 543 kts 43°
2026-04-20 23:19 41.81696 149.92530 32063 ft 543 kts 43°
2026-04-20 23:20 41.86983 149.99765 32080 ft 542 kts 43°
2026-04-20 23:20 41.92264 150.07009 32071 ft 543 kts 43°
2026-04-20 23:21 41.97509 150.14223 32076 ft 543 kts 43°
2026-04-20 23:21 42.02788 150.21501 32087 ft 543 kts 43°
2026-04-20 23:22 42.08058 150.28785 32083 ft 543 kts 43°
2026-04-20 23:22 42.13344 150.36109 32090 ft 543 kts 43°
2026-04-20 23:23 42.18562 150.43359 32102 ft 542 kts 43°
2026-04-20 23:23 42.23812 150.50670 32093 ft 543 kts 43°
2026-04-20 23:24 42.29068 150.58009 32097 ft 543 kts 43°
2026-04-20 23:24 42.34322 150.65365 32102 ft 543 kts 43°
2026-04-20 23:25 42.39574 150.72737 32102 ft 543 kts 43°
2026-04-20 23:25 42.44807 150.80100 32098 ft 543 kts 43°
2026-04-20 23:26 42.50011 150.87442 32123 ft 542 kts 43°
2026-04-20 23:26 42.55238 150.94835 32107 ft 542 kts 43°
2026-04-20 23:27 42.60459 151.02237 32108 ft 543 kts 43°
2026-04-20 23:27 42.65675 151.09654 32117 ft 543 kts 43°
2026-04-20 23:28 42.70891 151.17089 32114 ft 543 kts 43°
2026-04-20 23:28 42.76074 151.24496 32113 ft 543 kts 43°
2026-04-20 23:29 42.81278 151.31953 32106 ft 543 kts 43°
2026-04-20 23:29 42.86482 151.39429 32139 ft 543 kts 43°
2026-04-20 23:30 42.91688 151.46926 32137 ft 544 kts 43°
2026-04-20 23:30 42.96881 151.54427 32152 ft 543 kts 43°
2026-04-20 23:31 43.02072 151.61944 32137 ft 543 kts 43°
2026-04-20 23:31 43.07214 151.69408 32140 ft 542 kts 43°
2026-04-20 23:32 43.12409 151.76972 32157 ft 542 kts 43°
2026-04-20 23:32 43.17533 151.84450 32162 ft 541 kts 43°
2026-04-20 23:33 43.22691 151.91996 32156 ft 541 kts 43°
2026-04-20 23:33 43.27836 151.99546 32171 ft 541 kts 43°
2026-04-20 23:34 43.32972 152.07100 32162 ft 541 kts 43°
2026-04-20 23:34 43.38099 152.14663 32166 ft 541 kts 43°
2026-04-20 23:35 43.45749 152.25985 32175 ft 540 kts 43°
2026-04-20 23:36 43.50865 152.33581 32191 ft 540 kts 43°
2026-04-20 23:36 43.55970 152.41182 32181 ft 541 kts 43°
2026-04-20 23:37 43.61074 152.48801 32188 ft 541 kts 43°
2026-04-20 23:37 43.66172 152.56433 32184 ft 540 kts 43°
2026-04-20 23:38 43.71238 152.64036 32188 ft 540 kts 43°
2026-04-20 23:38 43.76321 152.71688 32203 ft 539 kts 43°
2026-04-20 23:39 43.81389 152.79335 32185 ft 538 kts 43°
2026-04-20 23:39 43.86447 152.86987 32199 ft 538 kts 43°
2026-04-20 23:40 43.91497 152.94650 32200 ft 537 kts 43°
2026-04-20 23:40 43.96533 153.02312 32197 ft 537 kts 43°
2026-04-20 23:41 44.01562 153.09983 32202 ft 537 kts 43°
2026-04-20 23:41 44.06552 153.17616 32219 ft 536 kts 43°
2026-04-20 23:42 44.11575 153.25319 32205 ft 537 kts 43°
2026-04-20 23:42 44.16586 153.33026 32206 ft 536 kts 43°
2026-04-20 23:43 44.21594 153.40748 32208 ft 537 kts 43°
2026-04-20 23:43 44.26576 153.48453 32207 ft 537 kts 43°
2026-04-20 23:44 44.31584 153.56219 32209 ft 538 kts 43°
2026-04-20 23:44 44.36583 153.63993 32210 ft 538 kts 44°
2026-04-20 23:45 44.41583 153.71789 32217 ft 538 kts 43°
2026-04-20 23:45 44.46583 153.79606 32208 ft 538 kts 43°
2026-04-20 23:46 44.51570 153.87427 32233 ft 538 kts 43°
2026-04-20 23:46 44.56561 153.95275 32227 ft 539 kts 43°
2026-04-20 23:47 44.61514 154.03083 32212 ft 539 kts 43°
2026-04-20 23:47 44.66484 154.10942 32217 ft 538 kts 43°
2026-04-20 23:48 44.71452 154.18819 32228 ft 538 kts 43°
2026-04-20 23:48 44.76416 154.26714 32215 ft 538 kts 43°
2026-04-20 23:49 44.81364 154.34605 32216 ft 537 kts 43°
2026-04-20 23:49 44.86303 154.42502 32233 ft 537 kts 43°
2026-04-20 23:50 44.91198 154.50488 32224 ft 539 kts 44°
2026-04-20 23:50 44.96068 154.58544 32223 ft 539 kts 44°
2026-04-20 23:51 45.00931 154.66606 32222 ft 539 kts 44°
2026-04-20 23:51 45.05801 154.74681 32236 ft 540 kts 43°
2026-04-20 23:52 45.10638 154.82715 32235 ft 540 kts 44°
2026-04-20 23:52 45.15505 154.90821 32220 ft 540 kts 44°
2026-04-20 23:53 45.20360 154.98934 32256 ft 540 kts 43°
2026-04-20 23:53 45.25216 155.07072 32227 ft 540 kts 43°
2026-04-20 23:54 45.30069 155.15228 32221 ft 540 kts 43°
2026-04-20 23:54 45.34911 155.23389 32220 ft 540 kts 43°
2026-04-20 23:55 45.39748 155.31568 32230 ft 540 kts 43°
2026-04-20 23:55 45.44576 155.39752 32218 ft 539 kts 43°
2026-04-20 23:56 45.49385 155.47930 32221 ft 538 kts 43°
2026-04-20 23:56 45.54157 155.56070 32241 ft 537 kts 43°
2026-04-20 23:57 45.58945 155.64259 32220 ft 537 kts 43°
2026-04-20 23:57 45.63723 155.72453 32219 ft 536 kts 43°
2026-04-20 23:58 45.68501 155.80673 32220 ft 536 kts 43°
2026-04-20 23:58 45.72459 155.87502 32225 ft 536 kts 43°
2026-04-20 23:59 45.77211 155.95719 32218 ft 535 kts 43°
2026-04-20 23:59 45.81947 156.03935 32219 ft 534 kts 43°
2026-04-21 00:00 45.86675 156.12160 32219 ft 534 kts 43°
2026-04-21 00:00 45.91394 156.20392 32227 ft 534 kts 43°
2026-04-21 00:01 45.96077 156.28590 32222 ft 534 kts 43°
2026-04-21 00:01 46.00790 156.36863 32218 ft 535 kts 43°
2026-04-21 00:02 46.05497 156.45150 32220 ft 535 kts 43°
2026-04-21 00:02 46.10198 156.53451 32218 ft 534 kts 43°
2026-04-21 00:03 46.14892 156.61766 32214 ft 534 kts 43°
2026-04-21 00:03 46.19574 156.70085 32242 ft 533 kts 43°
2026-04-21 00:04 46.24249 156.78413 32221 ft 533 kts 43°
2026-04-21 00:04 46.28879 156.86687 32219 ft 532 kts 43°
2026-04-21 00:05 46.33529 156.95021 32210 ft 532 kts 43°
2026-04-21 00:05 46.38168 157.03364 32216 ft 531 kts 42°
2026-04-21 00:06 46.42796 157.11708 32216 ft 530 kts 42°
2026-04-21 00:06 46.47417 157.20066 32215 ft 530 kts 42°
2026-04-21 00:07 46.52017 157.28411 32250 ft 529 kts 42°
2026-04-21 00:07 46.56584 157.36721 32217 ft 529 kts 42°
2026-04-21 00:08 46.61163 157.45079 32227 ft 528 kts 42°
2026-04-21 00:08 46.65733 157.53445 32215 ft 527 kts 42°
2026-04-21 00:09 46.70282 157.61803 32212 ft 526 kts 41°
2026-04-21 00:09 46.74816 157.70150 32202 ft 524 kts 41°
2026-04-21 00:10 46.79330 157.78486 32197 ft 523 kts 41°
2026-04-21 00:10 46.83805 157.86776 32243 ft 522 kts 41°
2026-04-21 00:11 46.88299 157.95126 32203 ft 523 kts 41°
2026-04-21 00:11 46.92793 158.03503 32190 ft 523 kts 41°
2026-04-21 00:12 46.97282 158.11895 32190 ft 523 kts 41°
2026-04-21 00:12 47.01756 158.20288 32217 ft 523 kts 40°
2026-04-21 00:13 47.06226 158.28697 32186 ft 522 kts 41°
2026-04-21 00:13 47.10674 158.37093 32178 ft 520 kts 41°
2026-04-21 00:14 47.15083 158.45438 32176 ft 519 kts 41°
2026-04-21 00:14 47.19506 158.53831 32183 ft 520 kts 40°
2026-04-21 00:15 47.23917 158.62229 32180 ft 519 kts 40°
2026-04-21 00:15 47.28336 158.70671 32165 ft 519 kts 40°
2026-04-21 00:16 47.32737 158.79101 32163 ft 519 kts 40°
2026-04-21 00:16 47.37130 158.87546 32163 ft 519 kts 40°
2026-04-21 00:17 47.41489 158.95950 32158 ft 518 kts 40°
2026-04-21 00:17 47.45862 159.04408 32155 ft 517 kts 40°
2026-04-21 00:18 47.50217 159.12854 32155 ft 516 kts 40°
2026-04-21 00:18 47.54564 159.21310 32148 ft 516 kts 40°
2026-04-21 00:19 47.58909 159.29789 32145 ft 516 kts 40°
2026-04-21 00:19 47.63242 159.38270 32142 ft 516 kts 40°
2026-04-21 00:20 47.67580 159.46791 32203 ft 516 kts 40°
2026-04-21 00:20 47.71895 159.55296 32139 ft 514 kts 40°
2026-04-21 00:21 47.76148 159.63708 32121 ft 511 kts 40°
2026-04-21 00:21 47.80400 159.72137 32113 ft 507 kts 40°
2026-04-21 00:22 47.84630 159.80545 32149 ft 507 kts 40°
2026-04-21 00:22 47.88849 159.88951 32125 ft 506 kts 40°
2026-04-21 00:23 47.93068 159.97388 32113 ft 507 kts 40°
2026-04-21 00:23 47.97252 160.05783 32115 ft 508 kts 40°
2026-04-21 00:24 48.01463 160.14257 32164 ft 509 kts 41°
2026-04-21 00:24 48.05694 160.22802 32102 ft 510 kts 41°
2026-04-21 00:25 48.09886 160.31300 32095 ft 509 kts 41°
2026-04-21 00:25 48.14078 160.39823 32087 ft 508 kts 41°
2026-04-21 00:26 48.18266 160.48358 32110 ft 508 kts 42°
2026-04-21 00:26 48.22442 160.56894 32097 ft 508 kts 42°
2026-04-21 00:27 48.26614 160.65451 32081 ft 507 kts 42°
2026-04-21 00:27 48.30713 160.74024 32085 ft 509 kts 43°
2026-04-21 00:28 48.34747 160.82807 32085 ft 512 kts 45°
2026-04-21 00:28 48.38771 160.91637 32073 ft 511 kts 45°
2026-04-21 00:29 48.42800 161.00462 32073 ft 510 kts 45°
2026-04-21 00:29 48.46824 161.09272 32061 ft 509 kts 45°
2026-04-21 00:30 48.50839 161.18083 32064 ft 510 kts 46°
2026-04-21 00:30 48.54825 161.26857 32065 ft 509 kts 46°
2026-04-21 00:31 48.58819 161.35682 32057 ft 509 kts 46°
2026-04-21 00:31 48.62805 161.44522 32056 ft 508 kts 46°
2026-04-21 00:32 48.66786 161.53376 32057 ft 509 kts 47°
2026-04-21 00:32 48.70755 161.62236 32054 ft 509 kts 47°
2026-04-21 00:33 48.74729 161.71134 32059 ft 508 kts 47°
2026-04-21 00:33 48.78681 161.80015 32041 ft 508 kts 47°
2026-04-21 00:34 48.82629 161.88913 32036 ft 508 kts 48°
2026-04-21 00:34 48.86542 161.97763 32040 ft 507 kts 48°
2026-04-21 00:35 48.90475 162.06686 32028 ft 507 kts 48°
2026-04-21 00:35 48.94391 162.15603 32030 ft 507 kts 48°
2026-04-21 00:36 48.98307 162.24543 32029 ft 508 kts 49°
2026-04-21 00:36 49.02188 162.33440 32027 ft 507 kts 49°
2026-04-21 00:37 49.06086 162.42404 32028 ft 507 kts 49°
2026-04-21 00:37 49.09978 162.51384 32029 ft 507 kts 49°
2026-04-21 00:38 49.13863 162.60377 32013 ft 506 kts 49°
2026-04-21 00:38 49.17733 162.69368 32013 ft 506 kts 49°
2026-04-21 00:39 49.21575 162.78320 31999 ft 506 kts 49°
2026-04-21 00:39 49.25427 162.87328 32006 ft 506 kts 50°
2026-04-21 00:40 49.29273 162.96351 32001 ft 506 kts 50°
2026-04-21 00:40 49.33113 163.05392 31989 ft 506 kts 50°
2026-04-21 00:41 49.36943 163.14441 31989 ft 505 kts 50°
2026-04-21 00:41 49.40757 163.23483 31980 ft 505 kts 50°
2026-04-21 00:42 49.44568 163.32547 31996 ft 505 kts 51°
2026-04-21 00:42 49.48370 163.41620 31977 ft 504 kts 51°
2026-04-21 00:43 49.52159 163.50695 31965 ft 503 kts 51°
2026-04-21 00:43 49.55910 163.59709 31970 ft 502 kts 51°
2026-04-21 00:44 49.59676 163.68790 31970 ft 502 kts 52°
2026-04-21 00:44 49.63429 163.77869 31968 ft 502 kts 52°
2026-04-21 00:45 49.69040 163.91502 31956 ft 501 kts 52°
2026-04-21 00:45 49.72141 163.99069 31950 ft 500 kts 52°
2026-04-21 00:46 49.76469 164.09662 31942 ft 501 kts 53°
2026-04-21 00:46 49.80181 164.18781 31949 ft 500 kts 53°
2026-04-21 00:47 49.83256 164.26363 31931 ft 500 kts 53°
2026-04-21 00:47 49.86942 164.35481 31929 ft 499 kts 53°
2026-04-21 00:48 49.90616 164.44596 31935 ft 498 kts 54°
2026-04-21 00:48 49.94282 164.53726 31928 ft 498 kts 54°
2026-04-21 00:49 49.97934 164.62853 31916 ft 497 kts 54°
2026-04-21 00:49 50.01582 164.72001 31908 ft 497 kts 54°
2026-04-21 00:50 50.05196 164.81092 31924 ft 497 kts 54°
2026-04-21 00:50 50.08821 164.90249 31899 ft 497 kts 54°
2026-04-21 00:51 50.12437 164.99411 31896 ft 497 kts 54°
2026-04-21 00:51 50.16052 165.08585 31889 ft 496 kts 54°
2026-04-21 00:52 50.20220 165.17056 31894 ft 489 kts 43°
2026-04-21 00:52 50.24924 165.24717 31892 ft 488 kts 42°
2026-04-21 00:53 50.29590 165.32365 31867 ft 485 kts 43°
2026-04-21 00:53 50.34217 165.40037 31866 ft 484 kts 43°
2026-04-21 00:54 50.38838 165.47756 31868 ft 487 kts 44°
2026-04-21 00:54 50.43444 165.55488 31881 ft 487 kts 43°
2026-04-21 00:55 50.48063 165.63251 31852 ft 484 kts 44°
2026-04-21 00:55 50.52661 165.71012 31858 ft 485 kts 44°
2026-04-21 00:56 50.57250 165.78799 31847 ft 484 kts 44°
2026-04-21 00:56 50.61802 165.86521 31841 ft 483 kts 43°
2026-04-21 00:57 50.66357 165.94280 31822 ft 482 kts 45°
2026-04-21 00:57 50.70898 166.02026 31845 ft 479 kts 44°
2026-04-21 00:58 50.75423 166.09788 31849 ft 478 kts 44°
2026-04-21 00:58 50.79913 166.17497 31845 ft 479 kts 44°
2026-04-21 00:59 50.84433 166.25276 31816 ft 481 kts 45°
2026-04-21 00:59 50.88955 166.33083 31824 ft 480 kts 45°
2026-04-21 01:00 50.93435 166.40892 31826 ft 479 kts 44°
2026-04-21 01:00 50.97945 166.48717 31807 ft 481 kts 45°
2026-04-21 01:01 51.02474 166.56602 31808 ft 485 kts 45°
2026-04-21 01:01 51.06976 166.64495 31818 ft 484 kts 45°
2026-04-21 01:02 51.11429 166.72340 31807 ft 471 kts 44°
2026-04-21 01:02 51.15825 166.80065 31756 ft 473 kts 45°
2026-04-21 01:03 51.20254 166.87894 31790 ft 473 kts 44°
2026-04-21 01:03 51.24649 166.95691 31770 ft 473 kts 44°
2026-04-21 01:04 51.29076 167.03541 31798 ft 476 kts 45°
2026-04-21 01:04 51.33480 167.11406 31731 ft 472 kts 46°
2026-04-21 01:05 51.37841 167.19203 31776 ft 471 kts 45°
2026-04-21 01:05 51.42157 167.26968 31728 ft 468 kts 46°
2026-04-21 01:06 51.46506 167.34780 31766 ft 470 kts 45°
2026-04-21 01:06 51.50898 167.42687 31765 ft 478 kts 46°
2026-04-21 01:07 51.55318 167.50708 31743 ft 477 kts 46°
2026-04-21 01:07 51.59632 167.58584 31735 ft 465 kts 45°
2026-04-21 01:08 51.63952 167.66419 31749 ft 469 kts 46°
2026-04-21 01:08 51.68258 167.74308 31735 ft 468 kts 46°
2026-04-21 01:09 51.72502 167.82098 31729 ft 464 kts 46°
2026-04-21 01:09 51.76781 167.89947 31689 ft 468 kts 47°
2026-04-21 01:10 51.81082 167.97888 31714 ft 470 kts 47°
2026-04-21 01:10 51.85372 168.05852 31689 ft 468 kts 47°
2026-04-21 01:11 51.89627 168.13742 31704 ft 470 kts 47°
2026-04-21 01:11 51.93962 168.21809 31707 ft 475 kts 47°
2026-04-21 01:12 51.98267 168.29869 31678 ft 470 kts 48°
2026-04-21 01:12 52.02535 168.37892 31678 ft 464 kts 47°
2026-04-21 01:13 52.06743 168.45797 31690 ft 466 kts 47°
2026-04-21 01:13 52.10983 168.53803 31660 ft 466 kts 47°
2026-04-21 01:14 52.15214 168.61804 31668 ft 466 kts 47°
2026-04-21 01:14 52.19431 168.69803 31683 ft 464 kts 47°
2026-04-21 01:15 52.23650 168.77823 31679 ft 467 kts 47°
2026-04-21 01:15 52.27859 168.85877 31642 ft 466 kts 48°
2026-04-21 01:16 52.32046 168.93923 31681 ft 463 kts 47°
2026-04-21 01:16 52.36267 169.02022 31658 ft 472 kts 49°
2026-04-21 01:17 52.40550 169.10289 31647 ft 478 kts 49°
2026-04-21 01:17 52.44785 169.18505 31635 ft 467 kts 49°
2026-04-21 01:18 52.48945 169.26582 31645 ft 464 kts 48°
2026-04-21 01:18 52.53113 169.34681 31631 ft 469 kts 49°
2026-04-21 01:19 52.57255 169.42802 31627 ft 460 kts 49°
2026-04-21 01:19 52.61406 169.50933 31643 ft 467 kts 49°
2026-04-21 01:20 52.65571 169.59135 31612 ft 466 kts 49°
2026-04-21 01:20 52.69720 169.67322 31645 ft 468 kts 49°
2026-04-21 01:21 52.73862 169.75528 31592 ft 466 kts 50°
2026-04-21 01:21 52.78029 169.83806 31631 ft 470 kts 50°
2026-04-21 01:22 52.82210 169.92140 31615 ft 476 kts 50°
2026-04-21 01:22 52.86432 170.00598 31626 ft 470 kts 50°
2026-04-21 01:23 52.90548 170.08843 31601 ft 462 kts 50°
2026-04-21 01:23 52.94883 170.16727 31758 ft 449 kts 42°
2026-04-21 01:24 52.99741 170.23125 31653 ft 451 kts 37°
2026-04-21 01:24 53.04817 170.29477 31606 ft 461 kts 37°
2026-04-21 01:25 53.09946 170.35958 31635 ft 470 kts 37°
2026-04-21 01:25 53.15125 170.42571 31596 ft 461 kts 38°
2026-04-21 01:26 53.20218 170.49118 31624 ft 463 kts 38°
2026-04-21 01:26 53.25318 170.55693 31605 ft 461 kts 38°
2026-04-21 01:27 53.30373 170.62226 31591 ft 459 kts 38°
2026-04-21 01:27 53.35407 170.68755 31608 ft 460 kts 38°
2026-04-21 01:28 53.40504 170.75384 31598 ft 468 kts 38°
2026-04-21 01:28 53.45674 170.82129 31621 ft 470 kts 38°
2026-04-21 01:29 53.50763 170.88790 31568 ft 460 kts 38°
2026-04-21 01:29 53.55833 170.95447 31591 ft 461 kts 38°
2026-04-21 01:30 53.60860 171.02067 31591 ft 460 kts 39°
2026-04-21 01:30 53.65874 171.08693 31597 ft 464 kts 39°
2026-04-21 01:31 53.70941 171.15407 31576 ft 465 kts 39°
2026-04-21 01:31 53.76058 171.22213 31591 ft 472 kts 39°
2026-04-21 01:32 53.81210 171.29074 31585 ft 464 kts 39°
2026-04-21 01:32 53.86289 171.35879 31606 ft 466 kts 39°
2026-04-21 01:33 53.91368 171.42692 31577 ft 462 kts 39°
2026-04-21 01:33 53.96360 171.49418 31588 ft 463 kts 39°
2026-04-21 01:34 54.00604 171.55144 31589 ft 464 kts 39°
2026-04-21 01:34 54.05660 171.62002 31586 ft 468 kts 39°
2026-04-21 01:35 54.10788 171.68964 31590 ft 472 kts 39°
2026-04-21 01:35 54.15837 171.75839 31562 ft 461 kts 39°
2026-04-21 01:36 54.20876 171.82723 31585 ft 466 kts 40°
2026-04-21 01:36 54.25944 171.89685 31572 ft 462 kts 40°
2026-04-21 01:37 54.30950 171.96586 31581 ft 464 kts 40°
2026-04-21 01:37 54.35966 172.03513 31591 ft 464 kts 40°
2026-04-21 01:38 54.41049 172.10554 31597 ft 474 kts 40°
2026-04-21 01:38 54.46141 172.17625 31578 ft 469 kts 40°
2026-04-21 01:39 54.51199 172.24675 31586 ft 468 kts 41°
2026-04-21 01:39 54.56227 172.31709 31575 ft 462 kts 41°
2026-04-21 01:40 54.61215 172.38728 31577 ft 464 kts 40°
2026-04-21 01:40 54.66224 172.45780 31558 ft 465 kts 41°
2026-04-21 01:41 54.71281 172.52925 31572 ft 474 kts 40°
2026-04-21 01:41 54.76422 172.60200 31589 ft 476 kts 42°
2026-04-21 01:42 54.81485 172.67414 31582 ft 471 kts 41°
2026-04-21 01:42 54.86524 172.74595 31574 ft 465 kts 42°
2026-04-21 01:43 54.91508 172.81743 31580 ft 466 kts 41°
2026-04-21 01:43 54.96535 172.88961 31582 ft 467 kts 41°
2026-04-21 01:44 55.01581 172.96241 31597 ft 475 kts 41°
2026-04-21 01:44 55.06714 173.03672 31578 ft 482 kts 41°
2026-04-21 01:45 55.11827 173.11079 31591 ft 476 kts 42°
2026-04-21 01:45 55.16885 173.18446 31585 ft 472 kts 43°
2026-04-21 01:46 55.21918 173.25820 31601 ft 474 kts 41°
2026-04-21 01:46 55.26956 173.33202 31604 ft 474 kts 42°
2026-04-21 01:47 55.32028 173.40654 31599 ft 479 kts 42°
2026-04-21 01:47 55.37170 173.48256 31614 ft 484 kts 43°
2026-04-21 01:48 55.42287 173.55842 31612 ft 480 kts 43°
2026-04-21 01:48 55.47369 173.63395 31597 ft 477 kts 42°
2026-04-21 01:49 55.52430 173.70949 31630 ft 478 kts 42°
2026-04-21 01:49 55.57479 173.78526 31619 ft 479 kts 43°
2026-04-21 01:50 55.62579 173.86181 31608 ft 483 kts 42°
2026-04-21 01:50 55.67721 173.93937 31627 ft 485 kts 43°
2026-04-21 01:51 55.72836 174.01676 31627 ft 480 kts 44°
2026-04-21 01:51 55.77905 174.09365 31644 ft 478 kts 44°
2026-04-21 01:52 55.85446 174.20886 31646 ft 480 kts 44°
2026-04-21 01:53 55.90526 174.28660 31667 ft 483 kts 43°
2026-04-21 01:53 55.95618 174.36487 31620 ft 485 kts 44°
2026-04-21 01:54 56.00744 174.44396 31673 ft 487 kts 45°
2026-04-21 01:54 56.05893 174.52398 31671 ft 491 kts 45°
2026-04-21 01:55 56.11076 174.60436 31685 ft 493 kts 44°
2026-04-21 01:55 56.16215 174.68475 31682 ft 489 kts 44°
2026-04-21 01:56 56.21343 174.76492 31695 ft 488 kts 44°
2026-04-21 01:56 56.26405 174.84458 31687 ft 485 kts 44°
2026-04-21 01:57 56.31461 174.92438 31695 ft 482 kts 45°
2026-04-21 01:57 56.36495 175.00394 31681 ft 480 kts 45°
2026-04-21 01:58 56.41504 175.08353 31692 ft 479 kts 44°
2026-04-21 01:58 56.46518 175.16345 31705 ft 480 kts 44°
2026-04-21 01:59 56.51540 175.24386 31702 ft 482 kts 45°
2026-04-21 01:59 56.56570 175.32475 31712 ft 483 kts 43°
2026-04-21 02:00 56.61582 175.40576 31689 ft 487 kts 46°
2026-04-21 02:00 56.66691 175.48847 31739 ft 496 kts 46°
2026-04-21 02:01 56.71830 175.57193 31724 ft 494 kts 46°
2026-04-21 02:01 56.76978 175.65565 31739 ft 495 kts 45°
2026-04-21 02:02 56.82054 175.73905 31734 ft 486 kts 45°
2026-04-21 02:02 56.87061 175.82116 31742 ft 486 kts 46°
2026-04-21 02:03 56.92107 175.90457 31726 ft 492 kts 46°
2026-04-21 02:03 56.97239 175.98943 31761 ft 500 kts 46°
2026-04-21 02:04 57.02399 176.07562 31769 ft 504 kts 45°
2026-04-21 02:04 57.07515 176.16091 31762 ft 492 kts 46°
2026-04-21 02:05 57.12525 176.24506 31765 ft 489 kts 44°
2026-04-21 02:05 57.17560 176.32970 31768 ft 493 kts 46°
2026-04-21 02:06 57.22651 176.41562 31796 ft 497 kts 46°
2026-04-21 02:06 57.27768 176.50231 31775 ft 502 kts 46°
2026-04-21 02:07 57.32930 176.59029 31785 ft 505 kts 45°
2026-04-21 02:07 57.38031 176.67753 31784 ft 494 kts 46°
2026-04-21 02:08 57.43087 176.76418 31801 ft 495 kts 45°
2026-04-21 02:08 57.48142 176.85139 31818 ft 499 kts 46°
2026-04-21 02:09 57.53269 176.93955 31832 ft 501 kts 45°
2026-04-21 02:09 57.58318 177.02744 31812 ft 503 kts 45°
2026-04-21 02:10 57.63462 177.11736 31834 ft 508 kts 45°
2026-04-21 02:10 57.68545 177.20655 31843 ft 498 kts 45°
2026-04-21 02:11 57.73566 177.29481 31840 ft 496 kts 46°
2026-04-21 02:11 57.78650 177.38421 31841 ft 505 kts 45°
2026-04-21 02:12 57.83719 177.47397 31849 ft 502 kts 46°
2026-04-21 02:12 57.88774 177.56374 31861 ft 496 kts 45°
2026-04-21 02:13 57.93792 177.65364 31863 ft 499 kts 47°
2026-04-21 02:13 57.98844 177.74430 31874 ft 500 kts 46°
2026-04-21 02:14 58.03909 177.83553 31891 ft 506 kts 46°
2026-04-21 02:14 58.09015 177.92782 31886 ft 506 kts 45°
2026-04-21 02:15 58.14043 178.01915 31902 ft 503 kts 46°
2026-04-21 02:15 58.19074 178.11054 31892 ft 497 kts 45°
2026-04-21 02:16 58.24013 178.20118 31884 ft 495 kts 46°
2026-04-21 02:16 58.28987 178.29278 31902 ft 501 kts 47°
2026-04-21 02:17 58.34039 178.38611 31912 ft 509 kts 46°
2026-04-21 02:17 58.39088 178.47947 31915 ft 503 kts 46°
2026-04-21 02:18 58.44064 178.57195 31920 ft 500 kts 46°
2026-04-21 02:18 58.49009 178.66462 31943 ft 495 kts 47°
2026-04-21 02:19 58.53918 178.75687 31920 ft 492 kts 46°
2026-04-21 02:19 58.58828 178.84955 31943 ft 500 kts 47°
2026-04-21 02:20 58.63834 178.94411 31964 ft 507 kts 46°
2026-04-21 02:20 58.68829 179.03919 31938 ft 505 kts 47°
2026-04-21 02:21 58.73762 179.13320 31955 ft 496 kts 46°
2026-04-21 02:21 58.78613 179.22639 31959 ft 490 kts 47°
2026-04-21 02:22 58.83469 179.31969 31973 ft 493 kts 47°
2026-04-21 02:22 58.88357 179.41428 31955 ft 501 kts 46°
2026-04-21 02:23 58.92472 179.49427 31978 ft 505 kts 46°
2026-04-21 02:23 58.97431 179.59076 31978 ft 507 kts 46°
2026-04-21 02:24 59.02401 179.68794 31979 ft 501 kts 46°
2026-04-21 02:24 59.07235 179.78323 31969 ft 493 kts 47°
2026-04-21 02:25 59.12071 179.87851 31987 ft 495 kts 46°
2026-04-21 02:25 59.16890 179.97426 31983 ft 500 kts 47°
2026-04-21 02:26 59.21785 -179.92838 31985 ft 504 kts 46°
2026-04-21 02:26 59.26710 -179.82993 31998 ft 510 kts 47°
2026-04-21 02:27 59.31678 -179.73014 31999 ft 513 kts 47°
2026-04-21 02:27 59.36641 -179.63023 31998 ft 507 kts 47°
2026-04-21 02:28 59.41530 -179.53106 32010 ft 504 kts 47°
2026-04-21 02:28 59.46400 -179.43184 32009 ft 504 kts 47°
2026-04-21 02:29 59.51226 -179.33324 32026 ft 500 kts 47°
2026-04-21 02:29 59.56028 -179.23456 32024 ft 497 kts 47°
2026-04-21 02:30 59.60808 -179.13591 32055 ft 499 kts 47°
2026-04-21 02:30 59.65608 -179.03651 32027 ft 498 kts 47°
2026-04-21 02:31 59.70356 -178.93777 32025 ft 493 kts 47°
2026-04-21 02:31 59.75082 -178.83892 32054 ft 496 kts 48°
2026-04-21 02:32 59.79848 -178.73877 32045 ft 500 kts 47°
2026-04-21 02:32 59.84621 -178.63814 32055 ft 500 kts 47°
2026-04-21 02:33 59.89378 -178.53745 32068 ft 500 kts 47°
2026-04-21 02:33 59.94119 -178.43657 32068 ft 501 kts 47°
2026-04-21 02:34 59.98882 -178.33473 32064 ft 502 kts 47°
2026-04-21 02:34 60.03621 -178.23304 32057 ft 495 kts 47°
2026-04-21 02:35 60.08309 -178.13192 32075 ft 499 kts 47°
2026-04-21 02:35 60.13051 -178.02912 32082 ft 502 kts 48°
2026-04-21 02:36 60.17764 -177.92659 32095 ft 502 kts 47°
2026-04-21 02:36 60.22849 -177.83185 32089 ft 496 kts 38°
2026-04-21 02:37 60.28257 -177.74383 32097 ft 502 kts 38°
2026-04-21 02:37 60.33707 -177.65502 32103 ft 504 kts 38°
2026-04-21 02:38 60.39120 -177.56552 32106 ft 499 kts 39°
2026-04-21 02:38 60.44442 -177.47659 32117 ft 501 kts 38°
2026-04-21 02:39 60.49849 -177.38578 32125 ft 505 kts 38°
2026-04-21 02:39 60.55255 -177.29465 32115 ft 504 kts 39°
2026-04-21 02:40 60.60643 -177.20337 32122 ft 504 kts 39°
2026-04-21 02:40 60.66023 -177.11191 32119 ft 501 kts 39°
2026-04-21 02:41 60.71341 -177.02109 32128 ft 503 kts 39°
2026-04-21 02:41 60.76714 -176.92889 32138 ft 503 kts 38°
2026-04-21 02:42 60.82067 -176.83662 32121 ft 501 kts 38°
2026-04-21 02:42 60.87392 -176.74442 32135 ft 499 kts 38°
2026-04-21 02:43 60.92693 -176.65221 32133 ft 499 kts 38°
2026-04-21 02:43 60.97983 -176.55981 32150 ft 504 kts 39°
2026-04-21 02:44 61.03333 -176.46592 32145 ft 505 kts 38°
2026-04-21 02:44 61.08674 -176.37170 32143 ft 504 kts 38°
2026-04-21 02:45 61.13987 -176.27759 32142 ft 501 kts 39°
2026-04-21 02:45 61.19260 -176.18374 32147 ft 499 kts 39°
2026-04-21 02:46 61.24520 -176.08971 32152 ft 498 kts 39°
2026-04-21 02:46 61.29758 -175.99561 32171 ft 498 kts 38°
2026-04-21 02:47 61.34963 -175.90174 32157 ft 498 kts 38°
2026-04-21 02:47 61.40199 -175.80686 32165 ft 499 kts 39°
2026-04-21 02:48 61.45443 -175.71134 32161 ft 500 kts 38°
2026-04-21 02:48 61.50688 -175.61543 32168 ft 501 kts 39°
2026-04-21 02:49 61.55937 -175.51898 32194 ft 502 kts 38°
2026-04-21 02:49 61.61194 -175.42189 32171 ft 503 kts 38°
2026-04-21 02:50 61.66440 -175.32456 32171 ft 503 kts 38°
2026-04-21 02:50 61.71670 -175.22705 32167 ft 502 kts 38°
2026-04-21 02:51 61.76895 -175.12920 32165 ft 501 kts 39°
2026-04-21 02:51 61.82101 -175.03125 32165 ft 500 kts 39°
2026-04-21 02:52 61.87264 -174.93359 32175 ft 502 kts 38°
2026-04-21 02:52 61.92467 -174.83481 32173 ft 502 kts 38°
2026-04-21 02:53 61.97681 -174.73531 32170 ft 503 kts 39°
2026-04-21 02:53 62.02884 -174.63552 32168 ft 504 kts 39°
2026-04-21 02:54 62.08096 -174.53507 32173 ft 505 kts 39°
2026-04-21 02:54 62.13297 -174.43435 32173 ft 505 kts 39°
2026-04-21 02:55 62.18466 -174.33376 32174 ft 505 kts 39°
2026-04-21 02:55 62.23651 -174.23240 32168 ft 505 kts 39°
2026-04-21 02:56 62.28836 -174.13048 32172 ft 505 kts 39°
2026-04-21 02:56 62.36595 -173.97714 32173 ft 505 kts 39°
2026-04-21 02:57 62.41769 -173.87426 32198 ft 506 kts 39°
2026-04-21 02:57 62.46933 -173.77102 32174 ft 505 kts 39°
2026-04-21 02:58 62.52039 -173.66842 32166 ft 504 kts 39°
2026-04-21 02:58 62.57167 -173.56492 32172 ft 502 kts 39°
2026-04-21 02:59 62.62268 -173.46144 32172 ft 502 kts 39°
2026-04-21 02:59 62.67367 -173.35749 32209 ft 502 kts 39°
2026-04-21 03:00 62.72461 -173.25312 32174 ft 502 kts 39°
2026-04-21 03:00 62.77542 -173.14853 32170 ft 501 kts 39°
2026-04-21 03:01 62.82573 -173.04443 32168 ft 501 kts 39°
2026-04-21 03:01 62.87626 -172.93936 32172 ft 501 kts 39°
2026-04-21 03:02 62.92675 -172.83384 32172 ft 501 kts 40°
2026-04-21 03:02 62.97719 -172.72790 32172 ft 501 kts 39°
2026-04-21 03:03 63.02751 -172.62167 32170 ft 501 kts 40°
2026-04-21 03:03 63.07771 -172.51517 32168 ft 501 kts 40°
2026-04-21 03:04 63.12786 -172.40822 32182 ft 501 kts 40°
2026-04-21 03:04 63.17796 -172.30088 32171 ft 501 kts 40°
2026-04-21 03:05 63.22773 -172.19368 32209 ft 502 kts 40°
2026-04-21 03:05 63.27776 -172.08536 32174 ft 502 kts 40°
2026-04-21 03:06 63.32767 -171.97673 32167 ft 502 kts 40°
2026-04-21 03:06 63.37747 -171.86780 32169 ft 501 kts 40°
2026-04-21 03:07 63.42723 -171.75838 32171 ft 501 kts 40°
2026-04-21 03:07 63.47658 -171.64933 32173 ft 501 kts 40°
2026-04-21 03:08 63.52613 -171.53927 32178 ft 502 kts 41°
2026-04-21 03:08 63.56728 -171.44743 32180 ft 502 kts 41°
2026-04-21 03:09 63.61667 -171.33666 32163 ft 502 kts 41°
2026-04-21 03:09 63.66606 -171.22533 32168 ft 502 kts 41°
2026-04-21 03:10 63.71535 -171.11363 32170 ft 501 kts 41°
2026-04-21 03:10 63.76450 -171.00166 32170 ft 501 kts 41°
2026-04-21 03:11 63.81328 -170.89001 32154 ft 502 kts 42°
2026-04-21 03:11 63.86232 -170.77708 32150 ft 502 kts 42°
2026-04-21 03:12 63.91128 -170.66375 32167 ft 502 kts 42°
2026-04-21 03:12 63.96014 -170.55009 32168 ft 502 kts 42°
2026-04-21 03:13 64.00898 -170.43588 32150 ft 503 kts 42°
2026-04-21 03:13 64.05776 -170.32120 32170 ft 503 kts 43°
2026-04-21 03:14 64.10640 -170.20620 32150 ft 503 kts 43°
2026-04-21 03:14 64.15464 -170.09150 32141 ft 503 kts 43°
2026-04-21 03:15 64.20307 -169.97577 32144 ft 502 kts 43°
2026-04-21 03:15 64.25129 -169.85992 32143 ft 502 kts 43°
2026-04-21 03:16 64.29951 -169.74345 32138 ft 502 kts 43°
2026-04-21 03:16 64.34766 -169.62654 32141 ft 502 kts 43°
2026-04-21 03:17 64.39538 -169.51000 32136 ft 502 kts 44°
2026-04-21 03:17 64.44329 -169.39237 32124 ft 502 kts 44°
2026-04-21 03:18 64.49124 -169.27402 32119 ft 502 kts 44°
2026-04-21 03:18 64.53903 -169.15539 32129 ft 503 kts 44°
2026-04-21 03:19 64.58670 -169.03641 32163 ft 503 kts 44°
2026-04-21 03:19 64.63441 -168.91668 32123 ft 503 kts 44°
2026-04-21 03:20 64.68194 -168.79670 32118 ft 503 kts 44°
2026-04-21 03:20 64.72949 -168.67603 32119 ft 503 kts 44°
2026-04-21 03:21 64.77651 -168.55604 32113 ft 503 kts 45°
2026-04-21 03:21 64.82388 -168.43444 32111 ft 504 kts 45°
2026-04-21 03:22 64.87117 -168.31244 32115 ft 505 kts 44°
2026-04-21 03:22 64.91858 -168.18948 32115 ft 506 kts 45°
2026-04-21 03:23 64.96955 -168.07910 32096 ft 496 kts 25°
2026-04-21 03:23 65.00101 -168.04722 32114 ft 489 kts 12°
2026-04-21 03:23 65.03421 -168.03236 32101 ft 482 kts 359°
2026-04-21 03:24 65.10116 -168.02929 32121 ft 482 kts 357°
2026-04-21 03:24 65.16855 -168.02521 32105 ft 486 kts 359°
2026-04-21 03:25 65.23628 -168.01973 32122 ft 487 kts 358°
2026-04-21 03:25 65.30399 -168.01386 32107 ft 486 kts 358°
2026-04-21 03:26 65.37119 -168.00786 32109 ft 484 kts 358°
2026-04-21 03:26 65.43841 -168.00187 32128 ft 482 kts 359°
2026-04-21 03:27 65.50541 -167.99622 32129 ft 482 kts 359°
2026-04-21 03:27 65.57242 -167.99036 32132 ft 481 kts 359°
2026-04-21 03:28 65.63942 -167.98434 32133 ft 482 kts 359°
2026-04-21 03:28 65.70649 -167.97839 32130 ft 482 kts 359°
2026-04-21 03:29 65.77359 -167.97243 32125 ft 483 kts 359°
2026-04-21 03:29 65.84084 -167.96646 32125 ft 484 kts 359°
2026-04-21 03:30 65.90773 -167.96045 32107 ft 483 kts 359°
2026-04-21 03:30 65.97497 -167.95443 32115 ft 483 kts 359°
2026-04-21 03:31 66.04204 -167.94824 32103 ft 482 kts 359°
2026-04-21 03:31 66.10901 -167.94206 32135 ft 481 kts 359°
2026-04-21 03:32 66.17601 -167.93592 32109 ft 482 kts 359°
2026-04-21 03:32 66.24308 -167.92970 32103 ft 482 kts 359°
2026-04-21 03:33 66.31016 -167.92360 32099 ft 482 kts 359°
2026-04-21 03:33 66.37729 -167.91745 32099 ft 483 kts 359°
2026-04-21 03:34 66.44402 -167.91116 32110 ft 483 kts 359°
2026-04-21 03:34 66.51165 -167.90470 32092 ft 483 kts 359°
2026-04-21 03:35 66.57850 -167.89829 32084 ft 483 kts 359°
2026-04-21 03:35 66.64573 -167.89184 32095 ft 483 kts 359°
2026-04-21 03:36 66.71295 -167.88543 32090 ft 483 kts 359°
2026-04-21 03:36 66.78013 -167.87903 32092 ft 483 kts 359°
2026-04-21 03:37 66.84738 -167.87248 32079 ft 483 kts 360°
2026-04-21 03:37 66.91445 -167.86589 32085 ft 483 kts 359°
2026-04-21 03:38 66.98159 -167.85936 32078 ft 482 kts 359°
2026-04-21 03:38 67.04869 -167.85276 32085 ft 482 kts 359°
2026-04-21 03:39 67.11543 -167.84617 32081 ft 483 kts 359°
2026-04-21 03:39 67.18267 -167.83948 32077 ft 483 kts 359°
2026-04-21 03:40 67.24975 -167.83279 32073 ft 482 kts 360°
2026-04-21 03:40 67.31683 -167.82597 32075 ft 482 kts 360°
2026-04-21 03:41 67.38341 -167.81928 32073 ft 482 kts 359°
2026-04-21 03:41 67.45045 -167.81250 32082 ft 483 kts 360°
2026-04-21 03:42 67.51760 -167.80554 32074 ft 483 kts 359°
2026-04-21 03:42 67.58478 -167.79863 32074 ft 483 kts 360°
2026-04-21 03:43 67.65200 -167.79168 32072 ft 484 kts 359°
2026-04-21 03:43 67.71939 -167.78460 32072 ft 484 kts 360°
2026-04-21 03:44 67.78668 -167.77747 32077 ft 484 kts
2026-04-21 03:44 67.85363 -167.77047 32072 ft 484 kts
2026-04-21 03:45 67.92089 -167.76337 32063 ft 483 kts
2026-04-21 03:45 67.98801 -167.75621 32063 ft 483 kts
2026-04-21 03:46 68.05517 -167.74900 32063 ft 482 kts
2026-04-21 03:46 68.12227 -167.74176 32071 ft 482 kts
2026-04-21 03:47 68.18928 -167.73449 32068 ft 482 kts
2026-04-21 03:47 68.25603 -167.72720 32069 ft 482 kts
2026-04-21 03:48 68.32318 -167.71983 32068 ft 482 kts
2026-04-21 03:48 68.39034 -167.71241 32069 ft 483 kts
2026-04-21 03:49 68.45760 -167.70494 32064 ft 483 kts
2026-04-21 03:49 68.52481 -167.69743 32064 ft 483 kts
2026-04-21 03:50 68.59160 -167.68992 32063 ft 483 kts
2026-04-21 03:50 68.65878 -167.68232 32063 ft 483 kts
2026-04-21 03:51 68.72605 -167.67466 32060 ft 483 kts
2026-04-21 03:51 68.79300 -167.66700 32071 ft 483 kts
2026-04-21 03:52 68.86023 -167.65926 32065 ft 484 kts
2026-04-21 03:52 68.92755 -167.65145 32063 ft 484 kts
2026-04-21 03:53 68.99488 -167.64360 32060 ft 484 kts
2026-04-21 03:53 69.06167 -167.63577 32060 ft 483 kts
2026-04-21 03:54 69.12891 -167.62784 32068 ft 484 kts
2026-04-21 03:54 69.19617 -167.61985 32061 ft 484 kts
2026-04-21 03:55 69.26358 -167.61179 32056 ft 484 kts
2026-04-21 03:55 69.33086 -167.60370 32057 ft 484 kts
2026-04-21 03:56 69.39821 -167.59556 32059 ft 484 kts
2026-04-21 03:56 69.45418 -167.58875 32071 ft 484 kts
2026-04-21 03:57 69.52161 -167.58050 32060 ft 485 kts
2026-04-21 03:57 69.58908 -167.57219 32056 ft 485 kts
2026-04-21 03:58 69.65612 -167.56388 32058 ft 484 kts
2026-04-21 03:58 69.72348 -167.55547 32056 ft 484 kts
2026-04-21 03:59 69.79071 -167.54703 32071 ft 483 kts
2026-04-21 04:00 69.89152 -167.53428 32055 ft 483 kts
2026-04-21 04:00 69.95862 -167.52573 32060 ft 482 kts
2026-04-21 04:01 70.02576 -167.51711 32060 ft 482 kts
2026-04-21 04:01 70.09283 -167.50844 32057 ft 482 kts
2026-04-21 04:02 70.15957 -167.49979 32061 ft 483 kts
2026-04-21 04:02 70.22675 -167.49099 32053 ft 484 kts
2026-04-21 04:03 70.29415 -167.48210 32055 ft 484 kts
2026-04-21 04:03 70.36153 -167.47316 32057 ft 484 kts
2026-04-21 04:04 70.42882 -167.46418 32053 ft 484 kts
2026-04-21 04:04 70.49621 -167.45513 32062 ft 484 kts
2026-04-21 04:05 70.56360 -167.44601 32053 ft 484 kts
2026-04-21 04:05 70.63102 -167.43683 32056 ft 484 kts
2026-04-21 04:06 70.69833 -167.42760 32054 ft 484 kts
2026-04-21 04:06 70.76522 -167.41837 32054 ft 484 kts
2026-04-21 04:07 70.83254 -167.40903 32060 ft 484 kts
2026-04-21 04:07 70.89983 -167.39961 32056 ft 484 kts
2026-04-21 04:08 70.96712 -167.39013 32060 ft 484 kts
2026-04-21 04:08 71.03441 -167.38059 32060 ft 484 kts
2026-04-21 04:09 71.10170 -167.37098 32057 ft 484 kts
2026-04-21 04:09 71.16894 -167.36132 32062 ft 484 kts
2026-04-21 04:10 71.23591 -167.35163 32054 ft 484 kts
2026-04-21 04:10 71.30327 -167.34181 32054 ft 484 kts
2026-04-21 04:11 71.37073 -167.33190 32056 ft 484 kts
2026-04-21 04:11 71.43774 -167.32200 32057 ft 484 kts
2026-04-21 04:12 71.50512 -167.31197 32060 ft 484 kts
2026-04-21 04:12 71.57246 -167.30188 32060 ft 484 kts
2026-04-21 04:13 71.63942 -167.29177 32057 ft 484 kts
2026-04-21 04:13 71.70682 -167.28153 32060 ft 484 kts
2026-04-21 04:14 71.77419 -167.27121 32061 ft 484 kts
2026-04-21 04:14 71.84154 -167.26083 32069 ft 484 kts
2026-04-21 04:15 71.90884 -167.25037 32060 ft 484 kts
2026-04-21 04:15 71.97625 -167.23983 32062 ft 484 kts
2026-04-21 04:16 72.04320 -167.22928 32064 ft 484 kts
2026-04-21 04:16 72.11093 -167.21853 32068 ft 484 kts
2026-04-21 04:17 72.17786 -167.20783 32064 ft 484 kts
2026-04-21 04:17 72.24560 -167.19693 32067 ft 484 kts
2026-04-21 04:18 72.31288 -167.18601 32066 ft 484 kts
2026-04-21 04:18 72.37992 -167.17505 32066 ft 484 kts
2026-04-21 04:19 72.44734 -167.16395 32069 ft 484 kts
2026-04-21 04:19 72.51468 -167.15278 32069 ft 484 kts
2026-04-21 04:20 72.58203 -167.14153 32071 ft 484 kts
2026-04-21 04:20 72.64934 -167.13020 32070 ft 484 kts
2026-04-21 04:21 72.71663 -167.11878 32073 ft 484 kts
2026-04-21 04:21 72.78352 -167.10734 32072 ft 484 kts
2026-04-21 04:22 72.85085 -167.09575 32078 ft 484 kts
2026-04-21 04:22 72.91820 -167.08406 32078 ft 484 kts
2026-04-21 04:23 72.98552 -167.07229 32078 ft 484 kts
2026-04-21 04:23 73.05289 -167.06041 32078 ft 484 kts
2026-04-21 04:24 73.12019 -167.04846 32083 ft 484 kts
2026-04-21 04:24 73.18709 -167.03648 32085 ft 484 kts
2026-04-21 04:25 73.25451 -167.02433 32083 ft 484 kts
2026-04-21 04:25 73.32187 -167.01208 32087 ft 484 kts
2026-04-21 04:26 73.38918 -166.99974 32086 ft 484 kts
2026-04-21 04:26 73.45647 -166.98732 32094 ft 484 kts
2026-04-21 04:27 73.52383 -166.97478 32084 ft 484 kts
2026-04-21 04:27 73.59107 -166.96214 32096 ft 483 kts
2026-04-21 04:28 73.65820 -166.94946 32090 ft 483 kts
2026-04-21 04:28 73.72489 -166.93676 32095 ft 483 kts
2026-04-21 04:29 73.79190 -166.92388 32095 ft 482 kts
2026-04-21 04:29 73.85901 -166.91087 32098 ft 482 kts
2026-04-21 04:30 73.92606 -166.89777 32099 ft 482 kts
2026-04-21 04:30 73.99312 -166.88457 32095 ft 482 kts
2026-04-21 04:31 74.06017 -166.87126 32106 ft 482 kts
2026-04-21 04:31 74.12727 -166.85782 32106 ft 482 kts
2026-04-21 04:32 74.19397 -166.84436 32103 ft 483 kts
2026-04-21 04:32 74.26112 -166.83070 32109 ft 483 kts
2026-04-21 04:33 74.32826 -166.81693 32097 ft 483 kts
2026-04-21 04:33 74.39538 -166.80304 32109 ft 482 kts
2026-04-21 04:34 74.46245 -166.78904 32109 ft 482 kts
2026-04-21 04:34 74.52903 -166.77503 32109 ft 482 kts
2026-04-21 04:35 74.59617 -166.76078 32114 ft 482 kts
2026-04-21 04:35 74.66324 -166.74642 32115 ft 482 kts
2026-04-21 04:36 74.73025 -166.73197 32109 ft 482 kts
2026-04-21 04:36 74.79713 -166.71741 32116 ft 481 kts
2026-04-21 04:37 74.86394 -166.70273 32116 ft 481 kts
2026-04-21 04:37 74.93072 -166.68794 32117 ft 480 kts
2026-04-21 04:38 74.99742 -166.67303 32119 ft 480 kts
2026-04-21 04:38 75.06414 -166.65799 32120 ft 480 kts
2026-04-21 04:39 75.13083 -166.64283 32123 ft 480 kts
2026-04-21 04:39 75.19760 -166.62751 32125 ft 480 kts
2026-04-21 04:40 75.26441 -166.61205 32124 ft 481 kts
2026-04-21 04:40 75.33122 -166.59645 32126 ft 481 kts
2026-04-21 04:41 75.39801 -166.58072 32128 ft 481 kts
2026-04-21 04:41 75.46436 -166.56495 32130 ft 480 kts
2026-04-21 04:42 75.53116 -166.54893 32127 ft 480 kts
2026-04-21 04:42 75.59784 -166.53280 32132 ft 480 kts
2026-04-21 04:43 75.65329 -166.51927 32133 ft 479 kts
2026-04-21 04:43 75.71994 -166.50287 32136 ft 479 kts
2026-04-21 04:44 75.78645 -166.48635 32125 ft 479 kts
2026-04-21 04:44 75.85298 -166.46968 32139 ft 479 kts
2026-04-21 04:45 75.91955 -166.45284 32139 ft 479 kts
2026-04-21 04:45 75.98567 -166.43596 32142 ft 479 kts
2026-04-21 04:46 76.05220 -166.41881 32143 ft 479 kts
2026-04-21 04:46 76.11887 -166.40147 32145 ft 479 kts
2026-04-21 04:47 76.18550 -166.38398 32142 ft 479 kts
2026-04-21 04:47 76.25155 -166.36647 32147 ft 479 kts
2026-04-21 04:48 76.31808 -166.34866 32147 ft 479 kts
2026-04-21 04:48 76.38459 -166.33069 32146 ft 479 kts
2026-04-21 04:49 76.45114 -166.31254 32156 ft 479 kts
2026-04-21 04:49 76.51774 -166.29420 32138 ft 479 kts
2026-04-21 04:50 76.58426 -166.27570 32163 ft 479 kts
2026-04-21 04:50 76.65076 -166.25702 32149 ft 479 kts
2026-04-21 04:51 76.71686 -166.23828 32162 ft 479 kts
2026-04-21 04:51 76.78334 -166.21924 32161 ft 479 kts
2026-04-21 04:52 76.84991 -166.19998 32165 ft 479 kts
2026-04-21 04:52 76.91635 -166.18057 32159 ft 478 kts
2026-04-21 04:53 76.98279 -166.16097 32162 ft 478 kts
2026-04-21 04:53 77.04922 -166.14117 32165 ft 479 kts
2026-04-21 04:54 77.11578 -166.12113 32169 ft 479 kts
2026-04-21 04:54 77.18184 -166.10104 32172 ft 479 kts
2026-04-21 04:55 77.24842 -166.08061 32155 ft 479 kts
2026-04-21 04:55 77.31490 -166.05999 32176 ft 478 kts
2026-04-21 04:56 77.38128 -166.03912 32178 ft 478 kts
2026-04-21 04:56 77.44764 -166.01808 32177 ft 478 kts
2026-04-21 04:57 77.51412 -165.99680 32180 ft 478 kts
2026-04-21 04:57 77.58015 -165.97543 32180 ft 478 kts
2026-04-21 04:58 77.64653 -165.95375 32178 ft 477 kts
2026-04-21 04:58 77.71277 -165.93184 32182 ft 477 kts
2026-04-21 04:59 77.77903 -165.90969 32184 ft 477 kts
2026-04-21 04:59 77.84529 -165.88732 32183 ft 477 kts
2026-04-21 05:00 77.91169 -165.86465 32186 ft 477 kts
2026-04-21 05:00 78.01089 -165.83037 32181 ft 477 kts
2026-04-21 05:01 78.07704 -165.80715 32195 ft 476 kts
2026-04-21 05:01 78.14316 -165.78369 32189 ft 476 kts
2026-04-21 05:02 78.20903 -165.76007 32190 ft 476 kts
2026-04-21 05:02 78.27511 -165.73611 32195 ft 476 kts
2026-04-21 05:03 78.34127 -165.71186 32196 ft 476 kts
2026-04-21 05:03 78.40742 -165.68735 32193 ft 475 kts
2026-04-21 05:04 78.47292 -165.66280 32192 ft 474 kts
2026-04-21 05:04 78.53878 -165.63782 32193 ft 474 kts
2026-04-21 05:05 78.60462 -165.61257 32196 ft 474 kts
2026-04-21 05:05 78.67037 -165.58706 32198 ft 474 kts
2026-04-21 05:06 78.73614 -165.56125 32200 ft 474 kts
2026-04-21 05:06 78.80191 -165.53515 32201 ft 474 kts
2026-04-21 05:07 78.86765 -165.50874 32201 ft 474 kts
2026-04-21 05:07 78.93341 -165.48202 32202 ft 474 kts
2026-04-21 05:08 78.99921 -165.45497 32203 ft 474 kts
2026-04-21 05:08 79.06462 -165.42776 32205 ft 474 kts
2026-04-21 05:09 79.13042 -165.40007 32196 ft 474 kts
2026-04-21 05:09 79.19619 -165.37205 32204 ft 473 kts
2026-04-21 05:10 79.26174 -165.34377 32204 ft 473 kts
2026-04-21 05:10 79.32738 -165.31512 32204 ft 472 kts
2026-04-21 05:11 79.39260 -165.28629 32201 ft 472 kts
2026-04-21 05:11 79.45819 -165.25696 32180 ft 472 kts
2026-04-21 05:12 79.52332 -165.22747 32200 ft 471 kts
2026-04-21 05:12 79.58871 -165.19749 32205 ft 471 kts
2026-04-21 05:13 79.65409 -165.16714 32204 ft 471 kts
2026-04-21 05:13 79.71946 -165.13642 32196 ft 471 kts
2026-04-21 05:14 79.78492 -165.10527 32206 ft 471 kts
2026-04-21 05:14 79.84994 -165.07391 32186 ft 472 kts
2026-04-21 05:15 79.91538 -165.04195 32205 ft 471 kts
2026-04-21 05:15 79.98081 -165.00962 32207 ft 471 kts
2026-04-21 05:16 80.04638 -164.98145 32206 ft 472 kts
2026-04-21 05:16 80.11201 -164.96308 32207 ft 472 kts
2026-04-21 05:17 80.17776 -164.94531 32207 ft 472 kts
2026-04-21 05:17 80.24348 -164.92593 32200 ft 472 kts
2026-04-21 05:18 80.30862 -164.90561 32206 ft 471 kts
2026-04-21 05:18 80.37414 -164.88465 32207 ft 471 kts
2026-04-21 05:19 80.43970 -164.86342 32204 ft 471 kts
2026-04-21 05:19 80.50511 -164.84199 32204 ft 471 kts
2026-04-21 05:20 80.57016 -164.82041 32207 ft 471 kts
2026-04-21 05:20 80.63558 -164.79842 32204 ft 470 kts
2026-04-21 05:21 80.70089 -164.77617 32204 ft 469 kts
2026-04-21 05:21 80.76611 -164.75362 32202 ft 469 kts
2026-04-21 05:22 80.83127 -164.73077 32204 ft 469 kts
2026-04-21 05:22 80.89647 -164.70758 32199 ft 469 kts
2026-04-21 05:23 80.96122 -164.68422 32202 ft 469 kts
2026-04-21 05:23 81.02628 -164.66044 32192 ft 468 kts
2026-04-21 05:24 81.09127 -164.63632 32199 ft 467 kts
2026-04-21 05:24 81.15621 -164.61185 32198 ft 467 kts
2026-04-21 05:25 81.22114 -164.58703 32196 ft 467 kts
2026-04-21 05:25 81.28599 -164.56188 32196 ft 467 kts
2026-04-21 05:26 81.35090 -164.53633 32174 ft 467 kts
2026-04-21 05:26 81.41571 -164.51041 32187 ft 466 kts
2026-04-21 05:27 81.48047 -164.48418 32192 ft 466 kts
2026-04-21 05:27 81.54497 -164.45769 32196 ft 469 kts
2026-04-21 05:28 81.61033 -164.43027 32187 ft 470 kts
2026-04-21 05:28 81.67574 -164.40248 32182 ft 470 kts
2026-04-21 05:29 81.74105 -164.37435 32176 ft 470 kts
2026-04-21 05:29 81.80600 -164.34595 32183 ft 469 kts
2026-04-21 05:30 81.87108 -164.31698 32188 ft 468 kts
2026-04-21 05:30 81.92515 -164.29256 32186 ft 468 kts
2026-04-21 05:31 81.99014 -164.26277 32185 ft 467 kts
2026-04-21 05:31 82.05502 -164.23255 32185 ft 467 kts
2026-04-21 05:32 82.11989 -164.20184 32167 ft 467 kts
2026-04-21 05:32 82.18482 -164.17058 32171 ft 467 kts
2026-04-21 05:33 82.24917 -164.13911 32179 ft 467 kts
2026-04-21 05:33 82.31411 -164.10681 32176 ft 467 kts
2026-04-21 05:34 82.37895 -164.07402 32178 ft 467 kts
2026-04-21 05:34 82.44390 -164.04061 32174 ft 467 kts
2026-04-21 05:35 82.50880 -164.00664 32177 ft 467 kts
2026-04-21 05:35 82.57368 -163.97210 32166 ft 467 kts
2026-04-21 05:36 82.63818 -163.93716 32166 ft 467 kts
2026-04-21 05:36 82.70310 -163.90136 32166 ft 467 kts
2026-04-21 05:37 82.76797 -163.86496 32166 ft 467 kts
2026-04-21 05:37 82.83283 -163.82790 32166 ft 467 kts
2026-04-21 05:38 82.89765 -163.79020 32151 ft 467 kts
2026-04-21 05:38 82.96247 -163.75181 32155 ft 466 kts
2026-04-21 05:39 83.02731 -163.71266 32154 ft 466 kts
2026-04-21 05:39 83.09162 -163.67312 32155 ft 466 kts
2026-04-21 05:40 83.15644 -163.63253 32156 ft 466 kts
2026-04-21 05:40 83.22112 -163.59126 32146 ft 466 kts
2026-04-21 05:41 83.28588 -163.54913 32135 ft 466 kts
2026-04-21 05:41 83.35044 -163.50641 32139 ft 470 kts
2026-04-21 05:42 83.41571 -163.46212 32137 ft 470 kts
2026-04-21 05:42 83.48096 -163.41711 32140 ft 470 kts
2026-04-21 05:43 83.54636 -163.37113 32136 ft 470 kts
2026-04-21 05:43 83.61161 -163.32430 32132 ft 470 kts
2026-04-21 05:44 83.67633 -163.27690 32123 ft 469 kts
2026-04-21 05:44 83.74141 -163.22822 32125 ft 468 kts
2026-04-21 05:45 83.80628 -163.17868 32119 ft 468 kts
2026-04-21 05:45 83.87115 -163.12808 32119 ft 468 kts
2026-04-21 05:46 83.93600 -163.07643 32119 ft 467 kts
2026-04-21 05:46 84.00085 -163.02367 32117 ft 468 kts
2026-04-21 05:47 84.06576 -162.96969 32116 ft 468 kts
2026-04-21 05:47 84.13024 -162.91490 32109 ft 468 kts
2026-04-21 05:48 84.19528 -162.85840 32104 ft 468 kts
2026-04-21 05:48 84.26014 -162.80076 32102 ft 468 kts
2026-04-21 05:49 84.32501 -162.74182 32102 ft 468 kts
2026-04-21 05:49 84.38942 -162.68193 32099 ft 468 kts
2026-04-21 05:50 84.45422 -162.62028 32088 ft 467 kts
2026-04-21 05:50 84.51900 -162.55719 32085 ft 467 kts
2026-04-21 05:51 84.58379 -162.49258 32081 ft 467 kts
2026-04-21 05:51 84.64851 -162.42647 32085 ft 467 kts
2026-04-21 05:52 84.71334 -162.35862 32081 ft 467 kts
2026-04-21 05:52 84.77795 -162.28932 32075 ft 467 kts
2026-04-21 05:53 84.84231 -162.21857 32075 ft 467 kts
2026-04-21 05:53 84.90704 -162.14559 32070 ft 467 kts
2026-04-21 05:54 84.97166 -162.07086 32076 ft 467 kts
2026-04-21 05:54 85.03632 -161.99414 32060 ft 467 kts
2026-04-21 05:55 85.10092 -161.91548 32042 ft 467 kts
2026-04-21 05:55 85.16560 -161.83454 32067 ft 467 kts
2026-04-21 05:56 85.23037 -161.75125 32058 ft 468 kts
2026-04-21 05:56 85.29481 -161.66630 32057 ft 469 kts
2026-04-21 05:57 85.35983 -161.57805 32044 ft 469 kts
2026-04-21 05:57 85.42467 -161.48748 32040 ft 469 kts
2026-04-21 05:58 85.48948 -161.39449 32039 ft 468 kts
2026-04-21 05:58 85.55416 -161.29885 32033 ft 467 kts
2026-04-21 05:59 85.61869 -161.20059 32046 ft 467 kts
2026-04-21 06:00 85.71524 -161.04815 32017 ft 468 kts
2026-04-21 06:00 85.77997 -160.94194 32022 ft 468 kts
2026-04-21 06:01 85.84479 -160.83229 32023 ft 468 kts
2026-04-21 06:01 85.90908 -160.72010 32026 ft 468 kts
2026-04-21 06:02 85.97373 -160.60363 32014 ft 467 kts
2026-04-21 06:02 86.03829 -160.48348 32007 ft 467 kts
2026-04-21 06:03 86.10273 -160.35958 32014 ft 467 kts
2026-04-21 06:03 86.16726 -160.23130 32014 ft 468 kts
2026-04-21 06:04 86.23190 -160.09835 32007 ft 469 kts
2026-04-21 06:04 86.29657 -159.96067 31997 ft 469 kts
2026-04-21 06:05 86.36090 -159.81880 32012 ft 469 kts
2026-04-21 06:05 86.42541 -159.67136 32009 ft 468 kts
2026-04-21 06:06 86.48993 -159.51844 32008 ft 467 kts
2026-04-21 06:06 86.55423 -159.36027 31991 ft 467 kts
2026-04-21 06:07 86.61854 -159.19601 31981 ft 467 kts
2026-04-21 06:07 86.68284 -159.02533 31979 ft 468 kts
2026-04-21 06:08 86.74691 -158.84848 31973 ft 469 kts
2026-04-21 06:08 86.81130 -158.66350 31973 ft 469 kts
2026-04-21 06:09 86.87579 -158.47045 31973 ft 468 kts
2026-04-21 06:09 86.94021 -158.26866 31982 ft 468 kts
2026-04-21 06:10 87.00451 -158.05980 31977 ft 470 kts
2026-04-21 06:10 87.06904 -157.84049 31971 ft 471 kts
2026-04-21 06:11 87.13327 -157.61204 31973 ft 471 kts 10°
2026-04-21 06:11 87.19772 -157.37202 31968 ft 470 kts 10°
2026-04-21 06:12 87.26198 -157.12133 31965 ft 469 kts 10°
2026-04-21 06:12 87.32615 -156.85874 31942 ft 469 kts 11°
2026-04-21 06:13 87.39036 -156.58282 31954 ft 470 kts 11°
2026-04-21 06:13 87.45402 -156.29526 31957 ft 470 kts 11°
2026-04-21 06:14 87.51820 -155.99016 31950 ft 471 kts 11°
2026-04-21 06:14 87.58234 -155.66852 31935 ft 471 kts 12°
2026-04-21 06:15 87.64630 -155.32991 31931 ft 471 kts 12°
2026-04-21 06:15 87.71022 -154.97227 31928 ft 471 kts 12°
2026-04-21 06:16 87.77394 -154.59473 31928 ft 470 kts 13°
2026-04-21 06:16 87.83763 -154.19440 31920 ft 470 kts 13°
2026-04-21 06:17 87.89042 -153.84379 31943 ft 470 kts 13°
2026-04-21 06:17 87.96420 -153.32231 31916 ft 470 kts 14°
2026-04-21 06:18 88.01719 -152.92304 31929 ft 469 kts 14°
2026-04-21 06:18 88.08026 -152.41794 31919 ft 469 kts 15°
2026-04-21 06:19 88.14318 -151.87850 31908 ft 469 kts 15°
2026-04-21 06:19 88.20553 -151.30477 31906 ft 470 kts 16°
2026-04-21 06:20 88.26817 -150.68513 31907 ft 470 kts 17°
2026-04-21 06:20 88.33055 -150.01970 31908 ft 470 kts 18°
2026-04-21 06:21 88.39271 -149.30227 31908 ft 470 kts 18°
2026-04-21 06:21 88.45458 -148.52768 31902 ft 470 kts 19°
2026-04-21 06:22 88.51581 -147.69313 31901 ft 470 kts 20°
2026-04-21 06:22 88.57711 -146.78066 31915 ft 470 kts 20°
2026-04-21 06:23 88.63798 -145.78739 31908 ft 470 kts 22°
2026-04-21 06:23 88.69841 -144.69984 31909 ft 472 kts 22°
2026-04-21 06:24 88.75866 -143.50850 31909 ft 474 kts 23°
2026-04-21 06:24 88.81821 -142.20392 31890 ft 475 kts 25°
2026-04-21 06:25 88.87468 -140.49722 31882 ft 473 kts 34°
2026-04-21 06:25 88.93121 -138.74288 31887 ft 474 kts 27°
2026-04-21 06:26 88.98902 -136.98790 31882 ft 475 kts 31°
2026-04-21 06:26 89.04007 -134.55010 31883 ft 477 kts 46°
2026-04-21 06:27 89.08029 -131.32991 31879 ft 478 kts 56°
2026-04-21 06:27 89.11339 -127.67326 31879 ft 478 kts 61°
2026-04-21 06:28 89.14210 -123.77012 31876 ft 478 kts 65°
2026-04-21 06:28 89.16728 -119.59659 31876 ft 478 kts 69°
2026-04-21 06:29 89.18808 -115.19620 31890 ft 477 kts 73°
2026-04-21 06:29 89.20387 -110.61463 31871 ft 475 kts 77°
2026-04-21 06:30 89.21434 -105.90733 31864 ft 473 kts 82°
2026-04-21 06:30 89.21938 -101.11670 31887 ft 472 kts 87°
2026-04-21 06:31 89.21893 -96.30338 31868 ft 472 kts 92°
2026-04-21 06:31 89.21309 -91.55608 31874 ft 473 kts 96°
2026-04-21 06:32 89.20187 -86.87394 31877 ft 473 kts 102°
2026-04-21 06:32 89.18544 -82.33787 31869 ft 474 kts 106°
2026-04-21 06:33 89.16413 -78.00445 31867 ft 475 kts 110°
2026-04-21 06:33 89.13823 -73.89384 31871 ft 475 kts 114°
2026-04-21 06:34 89.10822 -70.04438 31869 ft 476 kts 118°
2026-04-21 06:34 89.07449 -66.45173 31864 ft 476 kts 121°
2026-04-21 06:35 89.03799 -63.12436 31870 ft 477 kts 124°
2026-04-21 06:35 89.00129 -59.90594 31865 ft 476 kts 121°
2026-04-21 06:36 88.97443 -56.54279 31857 ft 471 kts 101°
2026-04-21 06:36 88.96346 -52.95874 31859 ft 470 kts 103°
2026-04-21 06:37 88.94021 -49.60436 31870 ft 475 kts 115°
2026-04-21 06:37 88.90972 -46.47042 31862 ft 478 kts 117°
2026-04-21 06:38 88.87708 -43.46603 31862 ft 480 kts 120°
2026-04-21 06:38 88.84275 -40.61949 31854 ft 478 kts 122°
2026-04-21 06:39 88.80607 -37.93198 31842 ft 475 kts 124°
2026-04-21 06:39 88.76711 -35.42255 31849 ft 473 kts 127°
2026-04-21 06:40 88.72612 -33.08478 31842 ft 471 kts 129°
2026-04-21 06:40 88.68315 -30.89806 31844 ft 470 kts 131°
2026-04-21 06:41 88.63842 -28.85439 31844 ft 471 kts 134°
2026-04-21 06:41 88.59178 -26.93152 31841 ft 474 kts 135°
2026-04-21 06:42 88.54373 -25.13648 31844 ft 477 kts 137°
2026-04-21 06:42 88.49374 -23.43797 31832 ft 478 kts 139°
2026-04-21 06:43 88.44251 -21.85023 31822 ft 479 kts 141°
2026-04-21 06:43 88.39004 -20.36144 31831 ft 479 kts 142°
2026-04-21 06:44 88.33665 -18.96867 31816 ft 479 kts 143°
2026-04-21 06:44 88.28235 -17.66608 31827 ft 478 kts 145°
2026-04-21 06:45 88.22718 -16.44271 31826 ft 478 kts 146°
2026-04-21 06:45 88.17120 -15.29207 31826 ft 479 kts 147°
2026-04-21 06:46 88.11445 -14.20840 31820 ft 480 kts 148°
2026-04-21 06:46 88.05705 -13.18850 31814 ft 480 kts 149°
2026-04-21 06:47 87.99897 -12.22568 31810 ft 481 kts 150°
2026-04-21 06:47 87.94029 -11.31665 31805 ft 481 kts 151°
2026-04-21 06:48 87.88107 -10.45749 31805 ft 482 kts 152°
2026-04-21 06:48 87.82131 -9.64384 31801 ft 482 kts 153°
2026-04-21 06:49 87.76148 -8.87835 31798 ft 482 kts 154°
2026-04-21 06:49 87.70086 -8.14806 31799 ft 482 kts 154°
2026-04-21 06:50 87.63994 -7.45558 31792 ft 483 kts 155°
2026-04-21 06:50 87.57839 -6.79517 31792 ft 484 kts 156°
2026-04-21 06:51 87.51637 -6.16594 31784 ft 486 kts 156°
2026-04-21 06:51 87.45447 -5.57125 31783 ft 486 kts 157°
2026-04-21 06:52 87.39179 -5.00017 31778 ft 487 kts 158°
2026-04-21 06:52 87.32886 -4.45588 31778 ft 486 kts 158°
2026-04-21 06:53 87.26566 -3.93645 31778 ft 488 kts 159°
2026-04-21 06:53 87.20204 -3.43893 31781 ft 489 kts 159°
2026-04-21 06:54 87.13806 -2.96235 31774 ft 490 kts 160°
2026-04-21 06:54 87.07380 -2.50607 31769 ft 491 kts 160°
2026-04-21 06:55 87.00935 -2.06935 31762 ft 491 kts 160°
2026-04-21 06:55 86.94509 -1.65325 31767 ft 490 kts 161°
2026-04-21 06:56 86.88026 -1.25177 31761 ft 492 kts 161°
2026-04-21 06:56 86.81501 -0.86510 31771 ft 494 kts 162°
2026-04-21 06:57 86.74929 -0.49217 31761 ft 495 kts 162°
2026-04-21 06:57 86.68345 -0.13402 31769 ft 495 kts 162°
2026-04-21 06:58 86.61759 0.20963 31744 ft 494 kts 162°
2026-04-21 06:58 86.55187 0.53877 31745 ft 493 kts 163°
2026-04-21 06:59 86.48634 0.85444 31743 ft 495 kts 163°
2026-04-21 06:59 86.41994 1.16192 31738 ft 497 kts 163°
2026-04-21 07:00 86.35312 1.45956 31738 ft 499 kts 164°
2026-04-21 07:00 86.28606 1.74717 31737 ft 500 kts 165°
2026-04-21 07:01 86.21904 2.02403 31739 ft 498 kts 165°
2026-04-21 07:01 86.11822 2.42192 31715 ft 505 kts 165°
2026-04-21 07:02 86.04987 2.67967 31715 ft 507 kts 166°
2026-04-21 07:02 85.98248 2.92498 31712 ft 501 kts 166°
2026-04-21 07:03 85.91455 3.16383 31716 ft 507 kts 166°
2026-04-21 07:03 85.84584 3.39729 31708 ft 507 kts 166°
2026-04-21 07:04 85.78915 3.58401 31711 ft 500 kts 167°
2026-04-21 07:04 85.72124 3.80099 31710 ft 503 kts 167°
2026-04-21 07:05 85.65229 4.01413 31709 ft 509 kts 167°
2026-04-21 07:05 85.58370 4.21944 31694 ft 500 kts 167°
2026-04-21 07:06 85.51605 4.41565 31698 ft 503 kts 167°
2026-04-21 07:06 85.44741 4.60863 31698 ft 507 kts 168°
2026-04-21 07:07 85.37844 4.79662 31710 ft 508 kts 168°
2026-04-21 07:07 85.30923 4.97961 31695 ft 507 kts 168°
2026-04-21 07:08 85.24010 5.15698 31695 ft 507 kts 168°
2026-04-21 07:08 85.17155 5.32773 31689 ft 506 kts 168°
2026-04-21 07:09 85.10262 5.49452 31678 ft 505 kts 168°
2026-04-21 07:09 85.03366 5.65664 31678 ft 506 kts 168°
2026-04-21 07:10 84.96442 5.81495 31681 ft 508 kts 169°
2026-04-21 07:10 84.89493 5.96937 31677 ft 510 kts 169°
2026-04-21 07:11 84.82515 6.12019 31679 ft 511 kts 169°
2026-04-21 07:11 84.75518 6.26735 31660 ft 511 kts 169°
2026-04-21 07:12 84.68581 6.40937 31659 ft 510 kts 169°
2026-04-21 07:12 84.61593 6.54869 31647 ft 510 kts 170°
2026-04-21 07:13 84.54600 6.68448 31660 ft 510 kts 170°
2026-04-21 07:13 84.47597 6.81694 31664 ft 511 kts 170°
2026-04-21 07:14 84.40628 6.94544 31656 ft 512 kts 170°
2026-04-21 07:14 84.33608 7.07165 31659 ft 512 kts 170°
2026-04-21 07:15 84.26574 7.19497 31663 ft 512 kts 171°
2026-04-21 07:15 84.19535 7.31536 31661 ft 513 kts 171°
2026-04-21 07:16 84.12477 7.43313 31663 ft 515 kts 171°
2026-04-21 07:16 84.05390 7.54857 31650 ft 516 kts 171°
2026-04-21 07:17 83.98346 7.66057 31650 ft 516 kts 171°
2026-04-21 07:17 83.91266 7.77049 31650 ft 515 kts 171°
2026-04-21 07:18 83.84183 7.87794 31639 ft 515 kts 171°
2026-04-21 07:18 83.77110 7.98279 31663 ft 516 kts 172°
2026-04-21 07:19 83.70010 8.08554 31647 ft 517 kts 172°
2026-04-21 07:19 83.62880 8.18645 31642 ft 518 kts 172°
2026-04-21 07:20 83.55740 8.28528 31648 ft 519 kts 172°
2026-04-21 07:20 83.48607 8.38184 31633 ft 519 kts 172°
2026-04-21 07:21 83.41496 8.47602 31645 ft 520 kts 172°
2026-04-21 07:21 83.34332 8.56879 31643 ft 521 kts 173°
2026-04-21 07:22 83.27127 8.66010 31639 ft 522 kts 173°
2026-04-21 07:22 83.19931 8.74938 31630 ft 523 kts 173°
2026-04-21 07:23 83.12732 8.83681 31633 ft 523 kts 173°
2026-04-21 07:23 83.05529 8.92252 31587 ft 523 kts 173°
2026-04-21 07:24 82.98351 9.00611 31613 ft 525 kts 174°
2026-04-21 07:24 82.91106 9.08869 31620 ft 527 kts 174°
2026-04-21 07:25 82.83826 9.17003 31650 ft 528 kts 173°
2026-04-21 07:25 82.76546 9.24981 31614 ft 527 kts 173°
2026-04-21 07:26 82.69304 9.32754 31610 ft 524 kts 174°
2026-04-21 07:26 82.62105 9.40331 31614 ft 524 kts 174°
2026-04-21 07:27 82.54856 9.47803 31604 ft 526 kts 174°
2026-04-21 07:27 82.47591 9.55150 31603 ft 528 kts 174°
2026-04-21 07:28 82.40297 9.62389 31599 ft 529 kts 174°
2026-04-21 07:28 82.32991 9.69501 31607 ft 529 kts 174°
2026-04-21 07:29 82.25685 9.76484 31584 ft 530 kts 175°
2026-04-21 07:29 82.18357 9.83347 31606 ft 531 kts 175°
2026-04-21 07:30 82.11007 9.90109 31611 ft 533 kts 175°
2026-04-21 07:30 82.03633 9.96790 31597 ft 534 kts 175°
2026-04-21 07:31 81.96331 10.07570 31602 ft 538 kts 163°
2026-04-21 07:31 81.89345 10.26603 31609 ft 537 kts 161°
2026-04-21 07:32 81.82316 10.43581 31608 ft 537 kts 163°
2026-04-21 07:32 81.75205 10.59702 31609 ft 537 kts 164°
2026-04-21 07:33 81.68097 10.75704 31601 ft 535 kts 163°
2026-04-21 07:33 81.61025 10.91571 31594 ft 533 kts 163°
2026-04-21 07:34 81.54026 11.07075 31613 ft 531 kts 163°
2026-04-21 07:34 81.47006 11.22355 31591 ft 530 kts 164°
2026-04-21 07:35 81.39951 11.37423 31615 ft 533 kts 164°
2026-04-21 07:35 81.32841 11.52346 31643 ft 537 kts 165°
2026-04-21 07:36 81.25683 11.67116 31637 ft 540 kts 165°
2026-04-21 07:36 81.18503 11.81687 31632 ft 540 kts 165°
2026-04-21 07:37 81.11321 11.96019 31639 ft 539 kts 165°
2026-04-21 07:37 81.04155 12.10084 31624 ft 538 kts 166°
2026-04-21 07:38 80.97036 12.23819 31660 ft 537 kts 166°
2026-04-21 07:38 80.89867 12.37425 31650 ft 537 kts 166°
2026-04-21 07:39 80.82706 12.50797 31649 ft 536 kts 166°
2026-04-21 07:39 80.75541 12.63962 31650 ft 536 kts 166°
2026-04-21 07:40 80.68384 12.76905 31650 ft 536 kts 166°
2026-04-21 07:40 80.61225 12.89646 31664 ft 536 kts 167°
2026-04-21 07:41 80.54043 13.02226 31656 ft 537 kts 167°
2026-04-21 07:41 80.46844 13.14642 31666 ft 539 kts 167°
2026-04-21 07:42 80.39672 13.26822 31665 ft 539 kts 167°
2026-04-21 07:42 80.32438 13.38920 31674 ft 540 kts 167°
2026-04-21 07:43 80.25194 13.50849 31654 ft 539 kts 167°
2026-04-21 07:43 80.17965 13.62572 31669 ft 538 kts 168°
2026-04-21 07:44 80.10743 13.74110 31670 ft 537 kts 168°
2026-04-21 07:44 80.03532 13.85456 31669 ft 537 kts 168°
2026-04-21 07:45 79.96367 13.96564 31678 ft 537 kts 168°
2026-04-21 07:45 79.89169 14.07559 31678 ft 537 kts 168°
2026-04-21 07:46 79.81945 14.18438 31671 ft 537 kts 168°
2026-04-21 07:46 79.74708 14.29174 31685 ft 538 kts 169°
2026-04-21 07:47 79.67630 14.39524 31691 ft 540 kts 169°
2026-04-21 07:47 79.60263 14.50149 31682 ft 541 kts 169°
2026-04-21 07:48 79.52962 14.60530 31694 ft 542 kts 169°
2026-04-21 07:48 79.45675 14.70745 31628 ft 539 kts 169°
2026-04-21 07:49 79.38421 14.80778 31673 ft 538 kts 169°
2026-04-21 07:49 79.31185 14.90633 31675 ft 539 kts 169°
2026-04-21 07:50 79.23967 15.00321 31688 ft 540 kts 169°
2026-04-21 07:50 79.16662 15.10001 31693 ft 541 kts 170°
2026-04-21 07:51 79.09354 15.19563 31682 ft 542 kts 170°
2026-04-21 07:51 79.02055 15.28985 31643 ft 541 kts 170°
2026-04-21 07:52 78.94743 15.38290 31673 ft 542 kts 170°
2026-04-21 07:52 78.88639 15.45955 31681 ft 543 kts 171°
2026-04-21 07:53 78.81305 15.55044 31669 ft 543 kts 171°
2026-04-21 07:53 78.73966 15.64074 31683 ft 542 kts 171°
2026-04-21 07:54 78.66618 15.72950 31664 ft 541 kts 171°
2026-04-21 07:54 78.59332 15.81640 31626 ft 540 kts 171°
2026-04-21 07:55 78.52020 15.90251 31666 ft 540 kts 171°
2026-04-21 07:55 78.44693 15.98766 31664 ft 540 kts 171°
2026-04-21 07:56 78.37356 16.07184 31661 ft 541 kts 171°
2026-04-21 07:56 78.30000 16.15521 31664 ft 542 kts 171°
2026-04-21 07:57 78.22636 16.23765 31633 ft 542 kts 171°
2026-04-21 07:57 78.15282 16.31897 31655 ft 541 kts 172°
2026-04-21 07:58 78.07958 16.39883 31648 ft 543 kts 172°
2026-04-21 07:58 78.00569 16.47842 31654 ft 543 kts 172°
2026-04-21 07:59 77.93179 16.55709 31651 ft 544 kts 172°
2026-04-21 07:59 77.85784 16.63486 31642 ft 544 kts 172°
2026-04-21 08:00 77.78398 16.71159 31655 ft 543 kts 172°
2026-04-21 08:00 77.71013 16.78737 31651 ft 543 kts 172°
2026-04-21 08:01 77.63631 16.86216 31647 ft 542 kts 172°
2026-04-21 08:02 77.52573 16.97254 31651 ft 542 kts 172°
2026-04-21 08:02 77.45190 17.04514 31643 ft 542 kts 172°
2026-04-21 08:03 77.37855 17.11649 31586 ft 542 kts 173°
2026-04-21 08:03 77.30477 17.18738 31671 ft 542 kts 173°
2026-04-21 08:04 77.23062 17.25774 31650 ft 544 kts 173°
2026-04-21 08:04 77.15654 17.32725 31640 ft 544 kts 173°
2026-04-21 08:05 77.08246 17.39600 31642 ft 544 kts 173°
2026-04-21 08:05 77.00883 17.46356 31551 ft 543 kts 174°
2026-04-21 08:06 76.93479 17.53074 31632 ft 542 kts 174°
2026-04-21 08:06 76.86068 17.59715 31642 ft 543 kts 174°
2026-04-21 08:07 76.78649 17.66286 31646 ft 544 kts 174°
2026-04-21 08:07 76.71220 17.72796 31644 ft 544 kts 174°
2026-04-21 08:08 76.63829 17.79204 31641 ft 545 kts 174°
2026-04-21 08:08 76.56398 17.85578 31582 ft 544 kts 174°
2026-04-21 08:09 76.48969 17.91878 31642 ft 544 kts 174°
2026-04-21 08:09 76.41532 17.98111 31644 ft 545 kts 174°
2026-04-21 08:10 76.34091 18.04281 31638 ft 545 kts 175°
2026-04-21 08:10 76.26687 18.10356 31637 ft 545 kts 175°
2026-04-21 08:11 76.19235 18.16405 31558 ft 544 kts 175°
2026-04-21 08:11 76.11797 18.22379 31631 ft 543 kts 175°
2026-04-21 08:12 76.04358 18.28286 31634 ft 544 kts 175°
2026-04-21 08:12 75.96965 18.34093 31641 ft 544 kts 175°
2026-04-21 08:13 75.89516 18.39885 31642 ft 545 kts 175°
2026-04-21 08:13 75.82060 18.45624 31637 ft 545 kts 175°
2026-04-21 08:14 75.74605 18.51305 31614 ft 543 kts 175°
2026-04-21 08:14 75.67192 18.56895 31634 ft 541 kts 175°
2026-04-21 08:15 75.59778 18.62423 31642 ft 541 kts 175°
2026-04-21 08:15 75.52377 18.67885 31644 ft 541 kts 175°
2026-04-21 08:16 75.45023 18.73258 31646 ft 541 kts 175°
2026-04-21 08:16 75.37621 18.78614 31551 ft 540 kts 175°
2026-04-21 08:17 75.30236 18.83908 31654 ft 538 kts 175°
2026-04-21 08:17 75.22860 18.89137 31653 ft 538 kts 176°
2026-04-21 08:18 75.15480 18.94315 31664 ft 539 kts 176°
2026-04-21 08:18 75.08091 18.99450 31703 ft 539 kts 176°
2026-04-21 08:19 75.00694 19.04543 31664 ft 540 kts 176°
2026-04-21 08:19 74.93334 19.09567 31623 ft 538 kts 176°
2026-04-21 08:20 74.85970 19.14540 31664 ft 537 kts 176°
2026-04-21 08:20 74.78608 19.19458 31677 ft 537 kts 176°
2026-04-21 08:21 74.71280 19.24308 31676 ft 537 kts 176°
2026-04-21 08:21 74.63911 19.29143 31685 ft 538 kts 176°
2026-04-21 08:22 74.56542 19.33932 31607 ft 537 kts 176°
2026-04-21 08:22 74.49175 19.38680 31695 ft 536 kts 176°
2026-04-21 08:23 74.41825 19.43366 31698 ft 536 kts 176°
2026-04-21 08:23 74.34456 19.48019 31741 ft 537 kts 176°
2026-04-21 08:24 74.27068 19.52641 31704 ft 538 kts 176°
2026-04-21 08:24 74.19688 19.57220 31700 ft 537 kts 176°
2026-04-21 08:25 74.12323 19.61749 31698 ft 535 kts 176°
2026-04-21 08:25 74.05033 19.66188 31713 ft 535 kts 176°
2026-04-21 08:26 74.00026 19.69207 31712 ft 535 kts 176°
2026-04-21 08:26 73.92681 19.73612 31710 ft 535 kts 176°
2026-04-21 08:27 73.85328 19.77984 31725 ft 535 kts 176°
2026-04-21 08:27 73.77980 19.82312 31723 ft 535 kts 176°
2026-04-21 08:28 73.70683 19.86571 31739 ft 535 kts 176°
2026-04-21 08:28 73.63324 19.90828 31759 ft 535 kts 176°
2026-04-21 08:29 73.55948 19.95056 31750 ft 536 kts 176°
2026-04-21 08:29 73.48633 19.99215 31744 ft 536 kts 176°
2026-04-21 08:30 73.41260 20.03370 31764 ft 536 kts 177°
2026-04-21 08:30 73.33885 20.07490 31745 ft 535 kts 176°
2026-04-21 08:31 73.26574 20.11539 31759 ft 535 kts 176°
2026-04-21 08:31 73.19211 20.15580 31780 ft 535 kts 176°
2026-04-21 08:32 73.11848 20.19586 31776 ft 536 kts 176°
2026-04-21 08:32 73.04474 20.23566 31796 ft 536 kts 176°
2026-04-21 08:33 72.97149 20.27484 31762 ft 535 kts 176°
2026-04-21 08:33 72.89787 20.31392 31823 ft 534 kts 176°
2026-04-21 08:34 72.82428 20.35263 31814 ft 535 kts 176°
2026-04-21 08:34 72.75119 20.39075 31821 ft 536 kts 176°
2026-04-21 08:35 72.67755 20.42885 31822 ft 536 kts 176°
2026-04-21 08:35 72.60381 20.46668 31772 ft 535 kts 175°
2026-04-21 08:36 72.53031 20.50410 31835 ft 533 kts 175°
2026-04-21 08:36 72.45689 20.54116 31854 ft 533 kts 175°
2026-04-21 08:37 72.38356 20.57786 31854 ft 533 kts 175°
2026-04-21 08:37 72.31024 20.61425 31858 ft 532 kts 175°
2026-04-21 08:38 72.23690 20.65036 31874 ft 532 kts 175°
2026-04-21 08:38 72.16407 20.68594 31870 ft 532 kts 175°
2026-04-21 08:39 72.09073 20.72148 31889 ft 533 kts 175°
2026-04-21 08:39 72.01729 20.75677 31892 ft 533 kts 175°
2026-04-21 08:40 71.94418 20.79164 31910 ft 534 kts 175°
2026-04-21 08:40 71.87066 20.82642 31909 ft 534 kts 175°
2026-04-21 08:41 71.80906 20.85537 31888 ft 534 kts 174°
2026-04-21 08:41 71.73614 20.88939 31928 ft 533 kts 174°
2026-04-21 08:42 71.66270 20.92336 31941 ft 533 kts 174°
2026-04-21 08:42 71.58930 20.95705 31938 ft 532 kts 174°
2026-04-21 08:43 71.51597 20.99046 31960 ft 532 kts 174°
2026-04-21 08:43 71.44254 21.02365 31930 ft 532 kts 174°
2026-04-21 08:44 71.36958 21.05639 31951 ft 528 kts 174°
2026-04-21 08:44 71.29701 21.08871 31977 ft 526 kts 174°
2026-04-21 08:45 71.22503 21.12051 31981 ft 525 kts 174°
2026-04-21 08:45 71.15272 21.15221 31994 ft 525 kts 174°
2026-04-21 08:46 71.08029 21.18374 31996 ft 525 kts 174°
2026-04-21 08:46 71.00791 21.21502 32009 ft 525 kts 173°
2026-04-21 08:47 70.93535 21.24617 32014 ft 526 kts 174°
2026-04-21 08:47 70.86393 21.28910 32058 ft 527 kts 168°
2026-04-21 08:48 70.79234 21.33981 32030 ft 528 kts 168°
2026-04-21 08:48 70.72060 21.38920 32054 ft 528 kts 168°
2026-04-21 08:49 70.64884 21.43773 32029 ft 528 kts 168°
2026-04-21 08:49 70.57770 21.48545 32081 ft 526 kts 167°
2026-04-21 08:50 70.50621 21.53316 32080 ft 525 kts 167°
2026-04-21 08:50 70.43482 21.58049 32094 ft 524 kts 168°
2026-04-21 08:51 70.36404 21.62708 32099 ft 524 kts 168°
2026-04-21 08:51 70.29277 21.67366 32096 ft 524 kts 168°
2026-04-21 08:52 70.22141 21.71994 32097 ft 522 kts 167°
2026-04-21 08:52 70.15102 21.76527 32113 ft 520 kts 167°
2026-04-21 08:53 70.08058 21.81035 32124 ft 516 kts 167°
2026-04-21 08:53 70.01030 21.85506 32114 ft 516 kts 167°
2026-04-21 08:54 69.93999 21.89941 32127 ft 518 kts 167°
2026-04-21 08:54 69.86943 21.94362 32125 ft 518 kts 167°
2026-04-21 08:55 69.79894 21.98750 32120 ft 519 kts 167°
2026-04-21 08:55 69.72855 22.03102 32129 ft 519 kts 167°
2026-04-21 08:56 69.65787 22.07440 32117 ft 519 kts 167°
2026-04-21 08:56 69.58704 22.11759 32166 ft 519 kts 168°
2026-04-21 08:57 69.51627 22.16048 32130 ft 520 kts 168°
2026-04-21 08:57 69.44544 22.20308 32109 ft 519 kts 168°
2026-04-21 08:58 69.37478 22.24531 32109 ft 518 kts 168°
2026-04-21 08:58 69.30422 22.28718 32115 ft 517 kts 168°
2026-04-21 08:59 69.23423 22.32844 32105 ft 517 kts 168°
2026-04-21 08:59 69.16378 22.36971 32115 ft 517 kts 168°
2026-04-21 09:00 69.09327 22.41075 32114 ft 517 kts 168°
2026-04-21 09:00 69.02265 22.45156 32115 ft 519 kts 167°
2026-04-21 09:01 68.95240 22.49187 32132 ft 509 kts 167°
2026-04-21 09:01 68.88334 22.53128 32151 ft 506 kts 167°
2026-04-21 09:02 68.81411 22.57056 32148 ft 509 kts 167°
2026-04-21 09:02 68.74459 22.60973 32145 ft 510 kts 167°
2026-04-21 09:03 68.64058 22.66785 32168 ft 509 kts 167°
2026-04-21 09:03 68.57116 22.70634 32160 ft 508 kts 167°
2026-04-21 09:04 68.50180 22.74456 32163 ft 507 kts 167°
2026-04-21 09:04 68.43250 22.78252 32158 ft 506 kts 167°
2026-04-21 09:05 68.36391 22.81985 32156 ft 506 kts 167°
2026-04-21 09:05 68.29491 22.85718 32157 ft 505 kts 168°
2026-04-21 09:06 68.22599 22.89425 32160 ft 504 kts 168°
2026-04-21 09:06 68.15699 22.93108 32188 ft 504 kts 168°
2026-04-21 09:07 68.08850 22.96744 32190 ft 504 kts 168°
2026-04-21 09:07 68.01959 23.00381 32196 ft 505 kts 168°
2026-04-21 09:08 67.95059 23.04001 32177 ft 505 kts 168°
2026-04-21 09:08 67.88150 23.07603 32188 ft 506 kts 168°
2026-04-21 09:09 67.81238 23.11186 32220 ft 506 kts 168°
2026-04-21 09:09 67.74302 23.14759 32196 ft 507 kts 168°
2026-04-21 09:10 67.67409 23.18289 32192 ft 508 kts 168°
2026-04-21 09:10 67.60466 23.21824 32221 ft 508 kts 168°
2026-04-21 09:11 67.53529 23.25333 32201 ft 508 kts 168°
2026-04-21 09:11 67.46595 23.28819 32210 ft 507 kts 168°
2026-04-21 09:12 67.39667 23.32282 32217 ft 506 kts 168°
2026-04-21 09:12 67.32751 23.35720 32210 ft 506 kts 168°
2026-04-21 09:13 67.25889 23.39111 32214 ft 505 kts 168°
2026-04-21 09:13 67.18967 23.42512 32216 ft 505 kts 169°
2026-04-21 09:14 67.12057 23.45886 32208 ft 504 kts 169°
2026-04-21 09:14 67.05157 23.49235 32206 ft 503 kts 169°
2026-04-21 09:15 66.98309 23.52540 32224 ft 502 kts 169°
2026-04-21 09:15 66.91430 23.55842 32223 ft 502 kts 169°
2026-04-21 09:16 66.84561 23.59120 32212 ft 502 kts 169°
2026-04-21 09:16 66.77684 23.62384 32215 ft 502 kts 169°
2026-04-21 09:17 66.70834 23.65616 32222 ft 502 kts 169°
2026-04-21 09:17 66.63964 23.68839 32243 ft 502 kts 169°
2026-04-21 09:18 66.57107 23.72037 32215 ft 499 kts 169°
2026-04-21 09:18 66.50279 23.75205 32215 ft 497 kts 169°
2026-04-21 09:19 66.43474 23.78345 32221 ft 496 kts 169°
2026-04-21 09:19 66.36717 23.81445 32209 ft 496 kts 169°
2026-04-21 09:20 66.29900 23.84556 32233 ft 499 kts 169°
2026-04-21 09:20 66.23047 23.87666 32215 ft 502 kts 169°
2026-04-21 09:21 66.16157 23.90775 32212 ft 503 kts 169°
2026-04-21 09:21 66.09261 23.93870 32209 ft 504 kts 169°
2026-04-21 09:22 66.02407 23.96929 32226 ft 502 kts 169°
2026-04-21 09:22 65.95533 23.99979 32209 ft 499 kts 169°
2026-04-21 09:23 65.88708 24.02992 32217 ft 497 kts 169°
2026-04-21 09:23 65.81905 24.05979 32220 ft 496 kts 169°
2026-04-21 09:24 65.75107 24.08949 32225 ft 496 kts 169°
2026-04-21 09:24 65.68312 24.11901 32227 ft 496 kts 169°
2026-04-21 09:25 65.61495 24.14847 32226 ft 498 kts 169°
2026-04-21 09:25 65.54694 24.17770 32234 ft 501 kts 169°
2026-04-21 09:26 65.47794 24.20719 32248 ft 503 kts 169°
2026-04-21 09:26 65.40896 24.23653 32238 ft 503 kts 169°
2026-04-21 09:27 65.33998 24.26570 32230 ft 502 kts 169°
2026-04-21 09:27 65.27128 24.29460 32244 ft 501 kts 169°
2026-04-21 09:28 65.21413 24.31854 32235 ft 501 kts 169°
2026-04-21 09:28 65.14515 24.34728 32254 ft 503 kts 169°
2026-04-21 09:29 65.07637 24.37579 32254 ft 505 kts 169°
2026-04-21 09:29 65.00684 24.40446 32256 ft 507 kts 169°
2026-04-21 09:30 64.93722 24.43301 32260 ft 507 kts 169°
2026-04-21 09:30 64.86809 24.46121 32255 ft 507 kts 169°
2026-04-21 09:31 64.79847 24.48946 32263 ft 507 kts 169°
2026-04-21 09:31 64.72881 24.51759 32267 ft 508 kts 169°
2026-04-21 09:32 64.65906 24.54560 32268 ft 508 kts 169°
2026-04-21 09:32 64.58980 24.57327 32270 ft 508 kts 169°
2026-04-21 09:33 64.51999 24.60102 32276 ft 508 kts 169°
2026-04-21 09:33 64.45032 24.62856 32270 ft 507 kts 169°
2026-04-21 09:34 64.38082 24.65591 32275 ft 506 kts 169°
2026-04-21 09:34 64.31119 24.68315 32263 ft 506 kts 169°
2026-04-21 09:35 64.24200 24.71010 32271 ft 506 kts 169°
2026-04-21 09:35 64.17244 24.73704 32268 ft 506 kts 169°
2026-04-21 09:36 64.10295 24.76382 32257 ft 506 kts 169°
2026-04-21 09:36 64.03353 24.79045 32257 ft 505 kts 169°
2026-04-21 09:37 63.96408 24.81695 32258 ft 505 kts 169°
2026-04-21 09:37 63.89523 24.84309 32246 ft 505 kts 169°
2026-04-21 09:38 63.82586 24.86929 32279 ft 505 kts 169°
2026-04-21 09:38 63.75626 24.89545 32255 ft 506 kts 169°
2026-04-21 09:39 63.68689 24.92139 32243 ft 505 kts 169°
2026-04-21 09:39 63.61795 24.94705 32245 ft 505 kts 169°
2026-04-21 09:40 63.54864 24.97272 32248 ft 505 kts 169°
2026-04-21 09:40 63.47927 24.99828 32244 ft 505 kts 169°
2026-04-21 09:41 63.40993 25.02371 32243 ft 505 kts 169°
2026-04-21 09:41 63.34058 25.04902 32251 ft 505 kts 169°
2026-04-21 09:42 63.27118 25.07421 32259 ft 505 kts 169°
2026-04-21 09:42 63.20173 25.09931 32246 ft 506 kts 169°
2026-04-21 09:43 63.13221 25.12431 32245 ft 506 kts 169°
2026-04-21 09:43 63.06316 25.14902 32240 ft 506 kts 169°
2026-04-21 09:44 62.99363 25.17379 32242 ft 506 kts 169°
2026-04-21 09:44 62.92411 25.19843 32240 ft 506 kts 169°
2026-04-21 09:45 62.85444 25.22300 32239 ft 506 kts 169°
2026-04-21 09:45 62.78526 25.24729 32240 ft 506 kts 169°
2026-04-21 09:46 62.71558 25.27164 32258 ft 506 kts 169°
2026-04-21 09:46 62.64580 25.29591 32242 ft 507 kts 169°
2026-04-21 09:47 62.57604 25.32006 32226 ft 508 kts 169°
2026-04-21 09:47 62.50622 25.33846 32212 ft 509 kts 177°
2026-04-21 09:48 62.43541 25.33485 32225 ft 509 kts 181°
2026-04-21 09:48 62.36443 25.33035 32221 ft 509 kts 181°
2026-04-21 09:49 62.29340 25.32691 32218 ft 509 kts 180°
2026-04-21 09:49 62.22252 25.32373 32223 ft 509 kts 180°
2026-04-21 09:50 62.18735 25.32211 31966 ft 502 kts 180°
2026-04-21 09:50 62.17604 25.32159 31799 ft 500 kts 180°
2026-04-21 09:50 62.08416 25.31733 30380 ft 487 kts 181°
2026-04-21 09:51 62.05077 25.31572 29773 ft 484 kts 181°
2026-04-21 09:51 62.01720 25.31399 29105 ft 481 kts 181°
2026-04-21 09:51 61.98387 25.31226 28527 ft 477 kts 181°
2026-04-21 09:51 61.95074 25.31059 27992 ft 472 kts 181°
2026-04-21 09:52 61.91808 25.30903 27463 ft 467 kts 181°
2026-04-21 09:52 61.88566 25.30750 26935 ft 464 kts 181°
2026-04-21 09:52 61.85348 25.30599 26397 ft 460 kts 181°
2026-04-21 09:52 61.82153 25.30449 25901 ft 456 kts 181°
2026-04-21 09:53 61.79014 25.30300 25402 ft 453 kts 181°
2026-04-21 09:53 61.75882 25.30152 24916 ft 449 kts 181°
2026-04-21 09:53 61.72765 25.30005 24438 ft 446 kts 181°
2026-04-21 09:53 61.69669 25.29860 23962 ft 442 kts 181°
2026-04-21 09:54 61.66604 25.29716 23465 ft 439 kts 181°
2026-04-21 09:54 61.63562 25.29573 22904 ft 436 kts 181°
2026-04-21 09:54 61.60531 25.29431 22361 ft 434 kts 181°
2026-04-21 09:54 61.57523 25.29295 21827 ft 431 kts 181°
2026-04-21 09:55 61.54523 25.29159 21297 ft 429 kts 181°
2026-04-21 09:55 61.51553 25.29026 20792 ft 427 kts 180°
2026-04-21 09:55 61.48590 25.28894 20287 ft 424 kts 180°
2026-04-21 09:55 61.45644 25.28761 19798 ft 422 kts 180°
2026-04-21 09:56 61.42744 25.28631 19333 ft 420 kts 180°
2026-04-21 09:56 61.39819 25.28500 18867 ft 418 kts 180°
2026-04-21 09:56 61.36911 25.28369 18399 ft 417 kts 180°
2026-04-21 09:56 61.34020 25.28241 17900 ft 415 kts 180°
2026-04-21 09:57 61.31135 25.28113 17393 ft 414 kts 180°
2026-04-21 09:57 61.28263 25.28025 16948 ft 410 kts 179°
2026-04-21 09:57 61.25419 25.27991 16540 ft 407 kts 179°
2026-04-21 09:57 61.22600 25.27975 16114 ft 404 kts 179°
2026-04-21 09:58 61.19796 25.27960 15678 ft 401 kts 179°
2026-04-21 09:58 61.17008 25.27941 15263 ft 399 kts 179°
2026-04-21 09:58 61.14239 25.27918 14844 ft 397 kts 179°
2026-04-21 09:58 61.11483 25.27891 14441 ft 394 kts 179°
2026-04-21 09:59 61.08775 25.27863 14061 ft 392 kts 179°
2026-04-21 09:59 61.06062 25.27834 13627 ft 389 kts 179°
2026-04-21 09:59 61.03380 25.27804 13398 ft 374 kts 179°
2026-04-21 09:59 61.00871 25.27772 13063 ft 349 kts 179°
2026-04-21 10:00 60.98537 25.27742 12629 ft 331 kts 179°
2026-04-21 10:00 60.96256 25.27716 12214 ft 318 kts 179°
2026-04-21 10:00 60.94040 25.27694 11814 ft 323 kts 179°
2026-04-21 10:00 60.91774 25.27676 11390 ft 328 kts 179°
2026-04-21 10:01 60.89475 25.27653 10954 ft 331 kts 179°
2026-04-21 10:01 60.87166 25.27627 10521 ft 333 kts 179°
2026-04-21 10:01 60.84844 25.27604 10079 ft 334 kts 179°
2026-04-21 10:01 60.82515 25.27579 9596 ft 336 kts 179°
2026-04-21 10:02 60.77915 25.27526 8564 ft 320 kts 179°
2026-04-21 10:02 60.75749 25.27506 8056 ft 305 kts 179°
2026-04-21 10:02 60.73670 25.27480 7544 ft 292 kts 179°
2026-04-21 10:03 60.71674 25.27455 7066 ft 281 kts 179°
2026-04-21 10:03 60.69743 25.27441 6584 ft 274 kts 179°
2026-04-21 10:03 60.67855 25.27420 6065 ft 270 kts 179°
2026-04-21 10:03 60.66002 25.27395 5568 ft 262 kts 179°
2026-04-21 10:04 60.64207 25.27377 5118 ft 253 kts 180°
2026-04-21 10:04 60.62475 25.27352 4669 ft 245 kts 180°
2026-04-21 10:04 60.60791 25.27330 4229 ft 240 kts 180°
2026-04-21 10:04 60.59110 25.27319 3959 ft 247 kts 180°
2026-04-21 10:05 60.57350 25.27316 3552 ft 257 kts 179°
2026-04-21 10:05 60.55556 25.27345 3161 ft 259 kts 180°
2026-04-21 10:05 60.53754 25.27272 2872 ft 254 kts 183°
2026-04-21 10:05 60.52046 25.27142 2828 ft 239 kts 180°
2026-04-21 10:06 60.50422 25.27235 2829 ft 238 kts 179°
2026-04-21 10:06 60.48757 25.27186 2827 ft 239 kts 181°
2026-04-21 10:06 60.47079 25.27124 2783 ft 242 kts 188°
2026-04-21 10:06 60.45571 25.25718 2790 ft 236 kts 224°
2026-04-21 10:07 60.44506 25.23269 2770 ft 231 kts 232°
2026-04-21 10:07 60.43453 25.20860 2775 ft 224 kts 230°
2026-04-21 10:07 60.42397 25.18517 2788 ft 225 kts 230°
2026-04-21 10:07 60.41361 25.16223 2643 ft 218 kts 230°
2026-04-21 10:08 60.40347 25.13982 2323 ft 212 kts 230°
2026-04-21 10:08 60.39350 25.11774 2028 ft 212 kts 230°
2026-04-21 10:08 60.38373 25.09614 1725 ft 203 kts 230°
2026-04-21 10:08 60.37464 25.07605 1464 ft 188 kts 230°
2026-04-21 10:09 60.36593 25.05678 1247 ft 184 kts 230°
2026-04-21 10:09 60.35725 25.03763 964 ft 181 kts 230°
2026-04-21 10:09 60.34890 25.01924 727 ft 174 kts 230°
2026-04-21 10:09 60.34090 25.00168 478 ft 164 kts 231°
2026-04-21 10:10 60.33336 24.98497 292 ft 156 kts 231°
2026-04-21 10:10 60.32607 24.96892 201 ft 150 kts 231°
2026-04-21 10:10 60.31968 24.95466 163 ft 118 kts 227°
2026-04-21 10:10 60.31578 24.94615 158 ft 67 kts 227°
2026-04-21 10:11 60.31292 24.93986 156 ft 47 kts 228°
2026-04-21 10:11 60.31140 24.93687 151 ft 16 kts 213°
2026-04-21 10:11 60.31038 24.93645 152 ft 16 kts 158°
2026-04-21 10:11 60.30979 24.93815 153 ft 16 kts 85°
2026-04-21 10:12 60.31038 24.93997 155 ft 16 kts 46°
2026-04-21 10:12 60.31112 24.94159 156 ft 16 kts 47°
2026-04-21 10:12 60.31185 24.94323 157 ft 16 kts 47°
2026-04-21 10:12 60.31258 24.94483 158 ft 16 kts 47°
2026-04-21 10:13 60.31332 24.94645 159 ft 16 kts 47°
2026-04-21 10:13 60.31406 24.94807 159 ft 16 kts 47°
2026-04-21 10:13 60.31480 24.94970 160 ft 16 kts 48°
2026-04-21 10:13 60.31524 24.95103 161 ft 9 kts 90°
2026-04-21 10:14 60.31483 24.95206 162 ft 10 kts 138°
2026-04-21 10:14 60.31454 24.95320 163 ft 10 kts 81°
2026-04-21 10:14 60.31490 24.95435 164 ft 10 kts 46°
2026-04-21 10:14 60.31537 24.95536 165 ft 10 kts 47°
2026-04-21 10:15 60.31552 24.95617 165 ft 10 kts 99°
2026-04-21 10:15 60.31515 24.95706 166 ft 0 kts 138°